ECMWFFLT2_sfc_temp_000.txt.gz
Temp
69 70 66 68 67 58 60 59 58 59 57 54 43 46 46 44 40 40 42 46 50 51 55 60 58 58 59 62 64 65 66 66 65 66 66 67 67 66 65 65 65 66 64 63 64 65 65 65 65 66 66 65 65 65 65 65 66 63 63 65 65 65 65
70 66 67 67 64 64 59 55 58 57 59 56 49 45 36 34 40 39 42 43 42 47 47 54 56 57 58 60 61 64 64 64 64 66 66 66 67 67 66 65 65 66 65 65 65 65 66 66 66 65 66 65 64 65 65 66 65 66 65 64 65 65 65
70 64 67 67 65 66 61 60 63 61 55 54 48 42 41 43 40 35 34 42 43 44 50 49 55 55 57 58 60 61 62 63 64 66 66 67 67 65 64 65 64 64 64 64 64 66 66 65 66 66 66 65 64 64 64 65 65 64 64 65 65 66 65
67 64 61 58 62 68 66 64 62 58 51 40 47 49 40 42 41 38 39 38 44 49 49 52 58 57 59 58 58 61 63 64 65 66 67 66 65 64 64 65 65 65 65 66 67 66 66 65 65 66 66 65 66 65 66 66 65 64 64 64 64 65 64
65 63 59 59 59 56 61 57 52 56 52 54 53 50 49 44 34 32 34 38 43 47 51 55 60 60 60 61 60 62 64 65 66 67 67 67 66 64 64 65 65 65 65 66 66 66 65 66 67 67 66 66 67 65 64 64 65 65 64 65 64 64 64
55 53 56 62 61 64 62 60 56 56 49 53 47 46 45 46 42 32 36 40 42 49 54 59 63 61 62 63 63 63 64 65 66 67 68 68 65 64 65 66 67 66 65 65 65 64 64 64 65 66 66 65 66 65 65 64 64 64 65 65 65 65 64
56 61 64 62 63 61 59 63 58 55 51 49 39 44 45 45 48 45 38 43 46 53 53 57 60 60 63 64 64 63 64 65 66 67 68 66 66 65 66 66 66 66 65 65 65 65 64 64 65 65 65 65 65 66 65 64 64 65 65 65 64 64 64
49 60 61 62 61 63 65 60 54 56 56 53 53 44 42 48 46 44 43 41 45 51 53 53 57 59 61 61 63 64 64 65 66 66 64 62 63 64 65 65 66 65 63 63 62 64 63 63 64 64 65 64 64 64 65 64 64 65 65 65 65 64 64
42 45 51 58 54 60 53 55 55 55 54 54 50 48 47 51 44 47 41 41 45 51 53 53 56 60 62 63 63 64 64 64 65 64 62 62 63 63 63 64 64 62 62 62 63 63 64 64 64 64 64 64 64 64 64 64 65 65 64 65 64 64 63
41 42 43 44 48 56 56 55 57 55 59 53 56 52 51 45 41 45 41 39 41 48 51 55 56 57 60 61 62 64 64 64 63 62 61 61 62 63 63 63 61 61 62 63 62 63 63 64 64 64 63 63 63 63 64 65 65 63 64 65 64 64 64
48 53 47 49 49 51 57 59 56 58 53 54 51 44 42 47 36 44 37 45 53 57 58 57 56 56 60 62 60 61 62 62 62 61 62 62 63 63 64 63 62 61 61 62 63 63 64 64 63 64 64 63 63 63 64 64 63 64 64 64 63 63 63
58 49 45 54 57 57 54 56 58 55 54 54 54 52 50 43 44 42 37 37 52 56 57 55 55 57 58 62 62 62 62 61 62 62 61 64 62 63 62 61 61 61 62 62 62 63 63 63 63 63 63 64 64 64 64 64 64 63 64 63 63 63 62
49 50 52 54 56 58 54 55 55 55 53 53 55 48 49 50 51 51 44 39 48 53 59 63 62 61 61 62 64 65 64 62 61 60 61 62 62 62 61 61 61 61 62 62 62 62 63 63 62 62 62 62 61 62 62 63 63 63 63 62 63 63 62
53 52 52 52 56 55 56 55 54 55 54 55 56 54 49 55 53 54 53 44 51 57 59 62 63 60 61 60 58 59 61 61 61 61 61 62 62 62 62 62 61 62 63 63 63 63 62 62 62 62 62 62 62 63 64 64 63 64 62 62 62 62 62
54 50 54 54 54 54 56 54 53 52 51 52 52 53 51 53 51 52 51 48 50 57 60 63 58 57 57 57 60 61 61 60 61 62 62 63 63 63 63 62 61 62 62 63 63 63 63 62 62 63 63 63 63 63 63 63 63 64 62 62 62 62 63
48 52 55 52 53 54 54 51 50 51 52 55 51 52 52 50 51 47 50 50 47 57 53 53 54 56 59 60 60 59 59 61 62 62 62 63 64 63 63 62 62 62 62 62 62 63 63 62 62 62 62 62 62 62 63 63 64 63 61 62 62 63 63
41 48 51 52 48 55 52 53 55 56 51 54 55 56 54 57 58 54 51 51 55 55 54 56 55 56 58 58 59 59 58 60 62 63 64 64 64 64 63 62 62 63 63 63 63 63 63 63 63 63 64 63 62 64 63 64 63 62 62 62 62 62 63
40 47 46 50 51 43 42 50 53 54 58 55 56 57 57 53 56 54 55 60 55 50 52 57 56 55 58 62 62 64 63 61 61 63 65 65 66 65 64 63 64 64 63 63 64 64 64 64 65 66 64 64 65 65 65 64 62 62 62 63 62 63 64
45 48 51 49 40 43 50 51 53 56 60 58 59 56 55 56 52 53 56 57 56 56 56 56 56 58 58 60 61 61 63 64 64 64 65 65 64 63 62 62 63 64 63 63 63 62 63 64 64 64 63 64 65 64 63 62 62 62 62 63 63 63 63
44 46 40 39 36 43 50 53 56 57 57 56 56 54 52 51 54 54 53 58 57 54 54 55 55 58 58 58 60 61 62 65 66 65 64 64 64 62 63 63 64 63 63 63 63 64 66 65 65 64 65 65 64 65 64 63 63 63 63 62 63 62 62
45 39 41 47 45 51 54 60 62 56 58 53 55 52 50 52 52 54 54 54 53 54 54 55 56 57 59 57 59 61 61 63 65 68 68 68 65 66 65 66 66 65 65 65 66 67 66 65 65 64 65 66 65 65 64 64 63 63 62 62 62 63 64
38 38 41 42 44 42 42 49 57 56 60 59 54 58 51 52 53 55 58 54 54 53 55 56 57 59 57 57 57 60 62 63 64 64 65 66 66 66 66 64 64 63 64 65 66 67 66 65 65 66 66 66 65 64 64 64 63 63 62 63 63 63 63
44 43 42 37 40 43 50 58 63 60 57 60 57 58 48 49 53 55 58 56 54 55 57 57 58 58 54 54 57 62 61 63 64 65 64 66 65 64 65 65 64 63 63 65 66 66 64 65 65 65 65 65 64 64 65 64 63 63 63 64 63 63 64
43 42 41 41 41 49 54 54 53 56 57 60 60 48 41 48 53 55 57 58 56 56 57 58 59 59 53 54 60 60 63 65 65 65 63 62 62 62 62 64 66 65 66 66 65 64 64 65 67 65 64 64 65 65 65 64 62 63 64 65 65 64 64
44 49 40 37 44 49 50 54 58 56 59 62 50 43 53 52 52 56 58 59 58 57 58 59 60 60 59 58 59 60 62 63 62 62 63 64 65 65 64 65 68 64 64 65 66 66 66 67 66 64 63 63 64 66 65 62 63 64 66 65 64 63 63
44 42 43 45 45 48 60 57 57 59 62 49 46 55 55 57 57 56 59 58 57 58 60 60 61 62 59 58 59 61 64 67 65 63 63 63 63 65 67 69 68 64 65 64 65 66 66 66 64 63 63 64 65 64 64 63 65 66 64 63 63 63 62
41 39 42 39 40 50 60 62 61 64 57 56 56 54 56 56 58 58 57 60 59 60 59 59 55 58 60 59 60 62 62 62 62 62 63 63 64 65 64 64 68 67 64 64 65 66 66 63 62 63 64 65 65 65 63 64 65 64 63 63 62 62 62
45 39 39 41 47 49 57 62 60 58 62 59 55 63 60 57 57 59 58 58 60 61 63 61 57 58 58 60 58 61 61 62 62 62 62 63 65 66 68 70 68 68 65 65 65 64 63 62 61 62 64 65 65 64 63 65 63 63 63 62 62 62 62
49 44 45 51 51 54 58 55 55 54 57 57 61 64 64 60 58 57 62 61 59 61 62 60 60 60 60 61 60 62 63 61 61 62 62 64 65 65 66 67 67 67 66 64 64 63 61 61 61 62 63 65 66 65 64 64 63 63 63 62 61 61 61
48 50 55 54 54 53 56 58 58 58 59 59 61 63 63 63 58 58 63 61 60 58 59 62 59 61 60 58 60 59 60 60 59 60 60 61 61 63 63 63 64 66 64 63 63 63 62 60 61 62 61 63 65 65 62 64 64 62 62 62 62 62 62
51 48 53 52 55 55 55 57 60 59 59 59 57 62 62 59 57 59 58 60 60 60 59 63 61 59 57 58 58 58 57 57 57 58 59 60 60 61 62 63 65 62 62 62 62 63 64 62 61 62 61 61 64 65 64 64 63 62 62 62 62 62 62
51 49 50 56 56 54 57 54 57 62 61 59 57 57 57 58 58 59 58 59 58 58 59 58 60 58 55 59 59 58 57 58 56 56 57 58 58 57 58 61 64 60 61 62 62 62 63 63 62 62 62 62 63 63 64 64 63 62 63 63 62 61 61
48 51 55 55 56 56 56 57 58 58 59 60 59 60 60 61 62 59 59 61 60 61 61 57 60 59 57 56 56 58 56 55 55 55 55 55 57 56 57 60 62 60 61 62 62 62 63 62 61 61 62 62 63 61 62 62 61 62 63 64 63 61 59
45 48 54 54 57 52 53 57 60 60 60 62 60 60 61 62 61 61 63 59 58 59 58 59 61 62 58 55 53 58 56 55 53 53 53 54 55 56 57 59 60 60 62 61 60 61 61 60 60 60 61 61 61 62 62 61 61 63 64 63 60 60 60
48 54 55 54 55 53 57 60 60 59 59 62 63 62 62 61 62 62 62 60 59 59 57 57 60 58 57 56 53 56 56 54 53 53 53 55 55 56 57 58 55 55 55 60 58 60 60 60 60 59 59 60 60 60 59 60 61 62 61 63 62 60 61
57 60 60 56 56 62 60 58 58 59 57 59 62 61 60 60 60 61 63 63 61 56 57 57 58 58 56 55 55 58 55 53 53 53 52 52 54 56 56 56 56 57 57 57 58 60 59 59 59 58 59 60 58 60 59 59 60 60 59 61 61 61 61
59 65 62 57 56 59 58 59 58 58 58 60 61 61 60 59 58 59 61 59 60 61 59 59 57 56 58 55 53 54 56 54 54 53 57 58 58 57 57 57 58 59 59 59 58 58 58 58 58 59 59 59 58 59 60 60 61 61 60 60 61 61 61

ECMWFFLT2_sfc_temp_003.txt.gz
Temp
80 80 77 77 79 71 74 73 72 74 75 74 58 59 59 60 62 61 65 65 70 74 76 74 72 71 73 73 74 76 77 78 77 76 77 78 78 79 78 78 78 77 77 76 77 78 79 79 79 79 78 79 80 79 78 78 77 77 78 78 78 77 77
76 77 80 78 75 80 76 71 74 72 75 77 70 62 58 61 58 60 61 64 67 65 67 72 71 71 73 71 72 75 76 77 75 76 76 77 78 79 79 78 77 77 77 77 78 79 80 80 80 78 78 79 80 80 79 79 78 78 78 78 77 77 76
77 76 80 81 81 78 81 79 80 75 67 66 62 64 55 56 56 60 60 60 61 65 70 74 74 73 74 70 71 73 73 75 75 76 77 77 79 79 77 77 76 76 77 77 77 79 81 80 78 79 80 79 78 78 78 79 78 79 78 78 77 76 76
75 79 81 72 75 79 78 80 77 73 77 68 64 66 66 66 57 55 60 59 65 69 72 76 77 77 75 72 70 72 75 76 76 76 77 77 77 77 77 77 77 77 78 79 80 80 80 78 78 79 80 81 81 79 76 77 77 77 76 76 76 76 76
76 73 77 77 77 72 72 76 72 74 70 70 72 67 65 64 59 58 59 59 66 73 74 74 78 78 75 74 72 72 74 77 77 77 78 77 78 77 77 77 77 77 78 80 80 80 80 79 79 81 82 81 81 80 78 78 77 77 77 77 77 77 77
72 76 73 73 77 80 79 77 75 76 68 66 63 60 63 63 63 53 56 58 69 77 70 73 78 78 76 76 76 75 76 77 77 77 78 78 78 78 77 78 79 79 78 78 78 78 78 78 80 81 80 79 79 78 80 80 81 80 79 77 77 77 76
75 72 74 70 74 74 75 79 78 78 76 74 69 58 60 62 62 63 62 59 66 76 69 70 73 73 76 77 77 77 77 77 77 78 80 79 79 78 78 78 79 80 78 77 76 75 75 76 77 78 78 79 78 79 78 78 78 79 80 79 78 76 76
72 73 74 73 72 75 76 73 71 75 75 77 75 72 68 66 60 61 60 58 68 75 66 68 69 68 71 74 75 76 78 77 77 77 77 77 76 76 77 78 79 78 78 76 74 74 74 74 75 76 77 77 77 78 79 80 78 78 79 78 78 76 76
67 71 73 74 75 75 76 76 72 70 72 71 69 66 64 65 62 67 63 57 68 74 67 69 68 71 73 74 75 75 76 76 77 76 76 76 75 74 75 75 76 76 75 73 73 74 74 74 76 76 76 76 76 76 78 80 80 80 79 78 77 76 76
54 54 54 57 66 71 73 70 68 70 74 68 69 66 64 60 57 58 62 64 71 74 71 73 74 71 72 74 75 77 76 76 76 76 75 74 74 73 73 74 74 73 73 73 73 74 74 75 76 75 75 76 76 76 76 78 79 78 78 78 78 77 77
66 68 68 68 71 71 70 68 71 69 69 72 71 67 63 64 53 57 56 65 70 72 76 76 78 74 75 76 74 73 73 74 75 75 74 73 73 73 73 73 74 73 73 72 73 73 74 76 76 76 76 75 76 75 76 77 77 78 77 76 75 75 76
69 68 66 69 70 73 71 70 69 70 68 70 71 68 67 60 60 59 56 51 64 70 74 76 75 75 74 74 75 75 73 73 73 73 72 72 72 73 73 73 73 72 73 73 73 73 74 75 76 76 76 76 75 75 76 77 78 77 77 75 75 75 75
63 63 65 66 69 71 71 74 71 69 69 68 69 68 66 65 67 65 61 51 63 70 75 78 79 78 76 77 77 77 76 75 73 71 71 71 72 72 73 73 73 73 73 72 73 73 74 75 75 75 74 74 74 75 76 76 78 77 76 75 74 75 74
65 63 65 66 71 67 70 70 72 72 69 70 72 70 66 69 68 69 67 59 63 72 75 78 79 77 76 77 76 75 74 74 72 72 71 72 72 72 73 73 73 74 74 73 73 73 73 74 74 74 74 74 74 75 75 76 75 76 75 74 74 74 74
65 65 66 67 69 70 70 68 67 68 69 68 67 68 64 64 64 66 66 63 63 72 73 74 77 74 72 72 72 74 74 73 72 72 71 72 72 73 73 73 74 74 74 74 74 73 74 74 74 74 74 75 75 77 77 78 75 76 76 74 74 74 74
65 65 66 65 67 69 68 67 68 65 65 66 67 66 69 66 66 65 63 63 66 76 75 72 71 69 69 71 72 72 72 73 72 71 72 71 72 73 73 74 74 73 73 73 73 74 74 75 75 74 74 75 75 75 76 76 77 77 75 74 74 74 74
65 61 63 66 66 68 64 65 70 71 69 70 69 68 66 71 73 68 65 68 76 77 71 70 74 72 71 71 72 72 71 71 73 72 72 72 73 73 73 73 73 74 74 74 74 75 76 76 75 75 75 75 74 75 76 76 76 75 75 75 74 74 75
62 61 64 66 65 57 60 72 72 75 71 69 69 70 69 69 70 73 74 74 73 70 70 69 72 73 72 71 71 72 72 71 70 73 73 74 74 75 75 75 75 74 75 75 76 76 76 77 78 77 77 76 76 78 78 77 75 74 73 74 74 74 74
61 60 62 61 55 59 70 68 67 68 72 74 74 73 72 72 70 70 69 72 72 73 74 73 72 72 71 70 70 72 73 73 73 72 73 73 74 74 75 75 75 74 74 74 74 75 76 77 76 76 75 76 77 77 76 75 75 73 74 74 74 74 74
62 60 61 52 57 66 67 69 68 70 71 68 69 68 72 72 73 71 70 73 76 75 73 72 70 69 71 71 71 71 73 74 74 74 74 75 76 75 76 75 74 73 74 74 74 74 76 76 76 76 76 77 77 77 77 76 75 74 74 73 74 74 74
61 61 62 63 63 65 69 69 68 70 70 68 69 67 73 75 73 71 71 74 75 73 70 70 70 70 71 71 74 73 73 73 75 76 77 78 77 78 77 77 75 75 76 75 76 76 75 76 76 76 77 77 76 77 76 76 74 75 74 73 73 74 74
63 60 59 60 60 56 63 71 75 75 77 77 75 73 70 74 73 72 75 73 74 71 70 69 69 69 73 75 78 74 75 75 74 76 78 80 79 79 78 76 76 75 75 76 76 76 76 76 76 77 77 76 76 75 75 76 76 75 74 74 74 74 74
60 61 57 57 55 61 70 73 78 73 72 77 74 71 66 75 77 74 73 75 74 72 71 70 68 72 73 75 80 76 74 75 78 77 77 79 80 78 77 77 76 75 74 75 76 76 76 76 76 76 76 76 75 75 75 77 76 75 74 75 75 75 75
62 62 58 57 61 64 70 72 72 72 71 74 74 59 62 76 75 75 73 74 74 71 71 72 70 74 73 76 78 77 75 76 78 76 74 74 75 75 76 77 77 76 74 73 73 74 74 75 77 76 76 75 75 75 76 77 76 74 75 75 76 77 76
59 57 61 61 63 67 68 70 72 69 72 73 63 54 71 77 74 71 72 75 76 71 70 71 71 74 77 75 73 73 76 75 74 76 77 77 77 76 77 77 76 75 74 74 74 75 75 76 77 76 75 74 73 74 75 74 74 75 76 77 76 76 75
61 61 60 61 64 70 74 69 72 73 72 61 60 76 73 76 76 72 73 75 73 72 72 71 76 78 75 72 72 73 76 76 75 76 76 76 76 78 78 76 75 75 75 74 75 77 76 77 77 75 73 72 73 74 74 73 75 77 77 76 75 74 74
58 58 58 56 48 66 71 72 71 72 67 72 75 73 70 72 75 74 71 73 72 72 72 73 74 76 75 75 74 75 76 76 75 75 75 74 74 75 74 74 76 76 74 74 75 77 79 79 76 74 74 72 73 73 73 74 76 77 76 75 74 74 73
62 57 53 54 68 70 73 74 70 70 74 72 68 70 76 74 72 73 73 72 72 72 74 72 74 73 73 71 71 72 73 74 75 74 74 74 75 75 79 80 77 77 75 75 76 77 78 76 75 74 73 72 73 73 73 76 76 75 74 74 73 72 73
63 62 66 71 68 70 73 70 70 72 73 71 71 70 72 74 75 72 73 72 70 71 73 73 74 72 73 75 73 74 74 74 74 74 74 74 75 76 76 78 77 77 77 75 75 75 74 73 73 73 74 74 73 73 75 76 74 75 74 73 72 72 73
65 67 69 70 69 70 71 74 72 72 73 75 74 73 73 74 74 72 73 73 71 70 73 74 72 76 74 72 71 72 73 73 72 71 72 72 73 74 74 74 74 75 75 75 74 74 73 72 72 72 73 75 74 74 77 75 76 75 74 73 72 73 74
61 58 66 66 70 71 71 73 74 74 74 72 73 72 71 73 72 71 72 72 71 72 72 75 74 73 73 73 72 72 71 72 72 72 73 72 72 72 73 73 72 73 73 74 74 74 73 73 73 75 74 75 77 77 76 76 75 74 73 72 72 72 72
63 65 69 70 72 70 71 70 71 74 75 73 72 70 72 72 71 72 71 72 71 72 73 74 74 72 73 75 72 74 74 73 71 71 70 70 70 70 70 70 71 72 72 73 73 73 73 74 73 74 75 74 76 76 78 78 77 73 72 72 73 73 72
66 68 67 70 72 74 75 74 72 72 72 73 72 69 69 71 71 69 71 74 73 74 75 73 74 74 73 75 76 79 76 74 73 71 70 69 70 70 70 70 70 71 72 72 72 72 73 73 72 72 72 74 75 73 74 74 72 73 73 72 72 72 72
63 64 64 67 62 63 69 72 75 75 73 70 71 69 71 73 72 71 72 71 72 75 74 75 78 75 73 72 73 80 75 74 71 69 68 68 69 69 68 69 70 70 69 70 70 70 70 70 71 71 71 71 72 76 75 73 72 72 72 72 72 73 72
60 67 69 67 66 65 68 71 73 73 72 70 70 71 73 73 74 75 74 72 70 71 71 73 77 74 74 71 70 74 75 70 68 68 68 68 68 68 68 68 68 68 68 68 68 68 69 69 70 70 70 72 72 73 72 72 72 72 71 70 71 72 71
68 71 69 68 65 64 68 71 70 70 71 70 70 73 73 73 73 74 75 75 73 71 72 70 73 75 73 71 72 74 71 68 67 66 66 67 68 68 68 68 67 67 67 68 68 69 70 70 70 70 72 72 71 74 72 72 72 72 71 70 69 70 70
66 71 70 68 66 67 70 70 69 69 70 70 71 72 73 73 73 75 75 74 75 74 72 72 69 71 73 70 71 72 70 67 65 64 64 65 66 67 69 69 68 68 69 69 69 70 70 70 70 71 71 71 71 74 72 73 73 72 71 70 71 71 70

ECMWFFLT2_sfc_temp_006.txt.gz
Temp
91 94 94 93 95 76 85 86 78 83 92 88 77 74 76 75 72 68 78 75 81 89 89 91 90 88 88 87 87 88 87 88 88 87 89 90 89 90 89 88 88 87 87 87 87 87 88 88 87 87 85 85 85 85 85 84 84 84 83 83 83 83 83
88 92 95 93 92 93 89 79 85 89 93 90 78 70 69 69 65 69 75 71 75 75 72 85 86 86 88 88 86 88 87 87 86 86 87 88 89 89 88 88 88 87 87 86 88 89 89 88 88 86 85 86 86 86 86 84 84 82 83 83 83 83 82
87 91 92 88 91 93 89 88 97 82 72 70 77 73 63 64 64 68 72 75 76 78 76 82 82 84 86 87 86 86 86 87 86 87 87 88 89 89 88 88 87 86 87 86 87 89 91 89 87 87 86 87 87 87 86 86 84 84 84 84 84 83 83
86 89 89 77 84 89 91 92 89 93 86 80 71 74 75 73 66 65 69 72 70 79 83 84 84 85 86 87 85 85 87 88 87 87 87 87 87 87 88 88 87 87 88 89 90 90 90 88 87 88 89 90 90 88 85 85 85 84 84 83 83 82 83
87 79 85 83 86 81 83 84 83 85 85 87 85 82 77 73 67 67 67 66 75 83 89 87 86 87 88 88 87 86 87 89 89 88 87 86 87 87 88 88 88 87 89 90 90 90 90 89 89 90 91 90 91 90 86 86 83 83 83 83 83 82 83
79 84 92 89 88 91 87 85 83 85 80 75 70 69 81 78 71 61 64 64 76 84 89 87 89 90 90 90 89 88 89 89 88 88 88 87 87 88 89 90 90 90 88 89 90 90 89 89 90 91 91 90 91 89 90 89 89 87 86 84 83 82 82
83 86 86 88 88 88 90 91 88 91 88 84 76 64 70 77 77 78 75 68 73 87 89 89 89 90 90 89 89 89 90 89 89 89 90 88 88 88 90 91 91 91 89 89 88 87 86 86 86 88 88 90 89 88 88 88 87 87 89 87 84 83 82
84 86 89 87 87 89 86 89 90 90 85 87 83 80 79 74 74 70 72 65 75 83 82 86 86 83 86 86 86 86 90 91 90 88 88 86 86 87 90 90 91 89 89 87 85 84 84 84 85 86 87 87 88 88 89 90 88 87 87 87 86 83 82
74 79 82 84 86 87 85 85 88 89 90 89 86 83 81 72 75 75 71 63 75 79 81 82 83 87 89 90 90 87 86 89 90 88 87 87 85 86 87 87 87 87 87 84 82 82 82 83 84 84 85 85 86 86 88 90 90 89 87 86 85 84 83
60 59 61 67 73 78 85 88 88 87 86 83 80 74 74 66 71 71 69 71 79 81 83 84 85 87 86 89 91 92 89 86 87 88 87 85 85 84 85 85 85 84 84 83 82 82 82 83 84 83 83 84 85 85 86 89 89 87 87 87 86 84 85
72 75 77 85 87 85 79 83 83 84 87 88 84 81 74 70 66 67 66 74 78 80 83 83 85 86 87 88 90 88 88 87 86 85 85 85 84 83 84 83 84 83 82 81 82 82 83 84 84 84 84 84 85 84 85 87 87 87 85 84 83 83 83
81 84 80 86 87 84 84 83 83 85 84 85 82 77 73 75 72 66 69 69 74 78 82 85 84 86 87 88 88 89 88 87 86 85 84 82 84 84 83 83 82 81 81 81 82 82 83 84 84 85 85 85 84 84 85 86 87 87 86 83 82 82 81
83 83 84 85 86 86 86 86 85 82 83 82 79 77 80 77 74 71 66 71 73 78 84 86 86 86 86 88 89 89 90 89 87 84 83 83 83 83 82 81 81 81 81 81 81 82 83 83 83 84 85 85 84 84 86 85 87 86 85 83 81 81 81
81 79 81 83 84 84 84 85 85 85 84 82 83 82 83 80 76 78 77 72 74 81 84 86 87 88 88 88 88 87 86 87 85 84 83 83 83 82 82 81 82 81 82 81 82 82 82 83 82 83 83 83 84 84 85 86 84 85 84 82 80 80 81
76 79 80 82 83 82 80 84 85 85 85 84 84 84 81 79 77 79 78 74 74 84 87 85 87 88 88 87 87 89 87 86 85 84 84 83 83 83 82 82 82 82 82 82 82 82 82 83 83 82 83 84 84 87 87 87 84 85 84 81 80 80 80
73 77 79 79 82 83 81 79 81 82 82 78 80 78 80 76 74 75 75 73 75 85 89 88 87 86 85 84 85 85 85 85 84 83 83 83 82 83 82 82 82 82 82 82 82 82 82 82 83 83 83 84 84 85 86 86 87 86 83 82 81 80 81
73 77 80 79 79 78 74 74 79 82 82 84 84 84 82 81 81 76 72 75 84 85 85 83 84 86 86 86 85 84 84 82 83 82 82 83 83 83 82 81 81 82 84 84 83 83 83 83 83 85 85 85 84 84 84 85 85 84 83 83 81 81 81
72 75 78 79 74 64 67 81 88 85 83 82 79 79 79 81 81 81 84 83 85 85 85 83 82 83 84 84 85 84 82 82 81 81 82 83 84 84 84 83 83 83 84 85 85 85 84 85 88 87 87 85 85 86 86 85 83 82 82 82 82 81 81
71 74 74 68 60 65 76 81 85 87 88 87 83 83 83 84 83 83 83 84 83 84 85 85 85 85 84 84 83 83 84 81 82 81 82 82 82 82 83 82 84 83 84 84 84 84 85 88 88 87 85 86 86 86 85 84 84 82 82 82 81 81 81
76 70 69 57 63 73 77 80 82 83 85 84 82 79 83 84 85 83 82 83 85 85 86 87 87 83 83 84 83 82 83 84 83 83 83 84 84 83 84 83 83 83 84 83 84 84 87 87 88 88 86 88 87 86 86 85 83 83 82 81 81 81 81
67 70 70 69 72 71 74 74 77 81 78 79 77 71 77 84 85 85 83 84 85 86 87 87 84 83 84 82 86 87 86 84 85 85 86 88 86 85 85 86 85 84 85 85 86 85 86 86 86 86 88 88 87 86 86 85 83 83 83 81 81 81 81
75 70 67 68 67 61 70 78 85 89 89 88 86 79 76 85 88 89 86 83 84 85 87 84 82 80 80 80 84 86 89 87 84 85 87 88 87 86 87 85 86 84 85 86 86 87 86 85 86 87 88 88 86 84 84 84 85 84 83 82 82 82 82
71 68 62 64 61 67 78 80 83 86 88 88 85 77 71 84 87 89 87 85 85 85 85 82 80 80 78 79 84 85 86 87 88 87 86 89 89 87 87 86 85 84 84 85 86 86 85 84 86 87 87 87 85 83 83 84 85 83 82 82 82 82 83
71 69 66 64 70 70 77 82 84 87 88 86 80 64 67 83 87 89 88 86 86 86 86 84 81 80 78 82 83 89 87 88 87 85 83 84 85 85 86 87 86 84 84 84 84 84 84 84 86 86 87 86 84 83 84 85 84 83 82 83 84 84 84
69 63 68 72 73 77 81 81 84 86 88 83 67 59 75 85 87 88 87 87 88 87 84 83 81 84 86 83 85 88 89 87 85 85 86 85 86 85 87 86 84 85 84 83 83 84 85 85 87 87 86 85 83 83 82 82 81 83 84 84 84 84 84
70 71 67 68 74 76 81 83 86 87 80 65 66 78 83 86 86 87 88 88 88 88 85 85 86 89 87 85 87 87 88 86 83 85 85 86 86 88 87 84 83 85 85 83 84 87 86 87 87 87 85 82 82 82 81 81 82 85 85 84 84 83 82
73 71 67 63 55 71 82 82 81 81 72 75 78 79 84 87 85 85 86 87 87 88 85 87 86 87 89 88 87 87 86 84 83 84 84 83 84 85 83 83 84 85 84 83 85 86 89 90 86 85 84 81 81 81 80 81 84 85 85 84 82 82 81
66 65 61 60 72 76 83 81 75 77 81 80 80 79 80 85 85 85 84 85 86 85 84 85 85 85 83 82 83 84 85 85 85 84 84 84 85 85 89 89 86 86 83 84 85 86 90 88 86 84 82 80 80 80 80 83 84 83 82 82 82 81 80
71 68 73 73 76 79 83 81 79 81 84 84 84 82 82 81 84 86 84 83 85 84 83 83 83 83 83 83 84 84 84 85 85 83 83 84 84 85 86 89 87 86 86 84 84 85 84 82 82 82 82 80 79 78 81 83 82 82 81 80 80 79 80
75 78 78 80 80 80 82 86 85 84 85 87 85 83 81 83 84 86 84 85 85 83 82 82 82 84 84 83 83 84 84 84 83 83 83 83 84 85 85 83 82 84 85 84 83 82 82 82 81 80 81 81 78 79 82 82 82 81 81 79 79 78 80
68 62 75 76 76 79 81 82 84 86 87 85 84 81 80 81 83 84 85 83 83 83 82 82 82 84 84 83 82 82 82 82 81 82 82 82 83 83 83 82 81 82 83 84 83 83 83 83 83 84 82 82 81 81 82 81 81 81 80 79 78 78 78
70 70 73 76 80 79 80 82 81 80 81 82 83 82 82 81 81 81 82 82 81 83 82 82 83 83 85 84 81 82 82 82 82 82 82 81 81 81 82 80 81 82 81 81 82 81 80 81 81 81 83 83 83 83 84 85 85 80 78 78 77 78 78
74 74 75 76 78 80 81 82 81 80 80 80 80 81 81 83 83 82 82 83 84 83 84 84 84 83 83 84 84 86 84 83 83 82 82 81 80 79 79 78 79 79 79 79 78 78 78 78 79 79 79 83 86 82 84 84 81 80 79 78 77 77 77
69 70 70 72 70 72 78 79 79 78 80 80 79 80 81 82 81 81 81 82 84 86 86 84 85 83 82 84 85 88 85 83 82 81 80 80 80 79 79 79 78 77 76 76 76 76 76 77 77 78 78 79 81 85 84 83 81 79 77 77 77 78 79
69 71 74 72 71 71 74 76 77 78 80 79 78 77 78 80 82 83 82 82 82 83 84 86 86 82 80 82 85 86 86 81 81 81 81 80 80 79 80 79 77 77 76 76 76 75 76 76 77 77 77 79 79 82 81 81 81 79 78 77 78 80 79
74 76 74 74 71 69 72 76 77 78 79 78 79 80 80 80 81 82 82 83 82 81 83 83 86 84 83 83 85 85 82 82 80 79 80 80 79 79 80 79 77 76 76 76 75 75 76 77 77 77 79 79 78 82 80 80 80 78 78 77 76 79 79
72 75 75 74 73 74 76 77 78 80 79 79 77 78 80 79 80 82 81 81 84 84 82 82 84 86 85 85 85 81 80 79 79 77 76 76 77 79 80 79 77 76 76 76 76 76 76 76 76 77 77 78 78 81 79 80 79 78 77 77 78 78 77

ECMWFFLT2_sfc_temp_009.txt.gz
Temp
97 97 100 99 100 78 89 90 82 87 98 92 80 79 84 83 75 71 83 78 82 92 91 93 94 93 93 93 95 96 94 95 94 94 94 95 95 95 93 92 90 88 89 91 90 89 90 91 90 89 87 87 87 86 86 85 85 86 86 86 86 86 86
99 102 102 101 101 100 94 82 91 98 101 95 83 72 74 73 68 72 81 76 78 78 74 92 90 89 92 92 92 95 93 94 92 94 94 93 94 94 93 92 90 91 89 90 91 91 92 91 91 89 87 88 88 87 87 86 85 85 85 86 86 85 85
97 102 101 96 100 102 94 93 101 88 76 73 80 76 66 66 64 68 74 78 78 80 77 85 84 87 89 91 91 92 92 92 92 93 94 95 95 95 93 93 91 89 89 90 90 91 93 92 90 89 88 89 89 88 88 88 86 86 86 87 86 85 85
95 96 94 81 88 97 99 100 93 100 90 81 75 76 76 74 67 67 71 77 72 83 85 87 85 87 88 91 90 91 93 94 93 93 93 94 93 93 93 92 91 90 90 89 93 93 93 91 90 90 91 92 92 90 88 87 88 87 86 86 85 84 85
94 82 89 85 88 85 87 88 87 90 88 94 88 84 77 74 70 70 68 67 73 82 92 91 89 89 90 91 90 90 92 94 96 95 94 93 93 93 93 92 93 92 91 92 94 94 94 93 92 93 93 93 93 92 89 89 86 86 86 86 86 85 85
83 86 95 94 94 94 90 88 84 88 85 79 73 71 87 83 75 63 67 67 76 84 92 91 91 92 93 93 92 92 93 95 94 94 95 94 92 92 93 94 94 89 89 91 94 94 93 93 93 94 93 93 93 92 92 91 91 90 89 86 85 85 85
87 91 97 99 99 100 97 94 88 93 91 87 78 64 74 82 80 82 78 72 75 88 93 93 92 93 94 94 94 93 94 94 95 95 97 95 93 93 94 94 92 91 92 92 92 91 91 90 90 91 92 93 92 92 92 91 91 90 92 90 87 85 84
92 97 100 100 99 98 93 95 96 92 86 88 84 81 82 77 78 74 75 68 76 88 92 94 93 92 94 93 94 92 94 95 95 95 94 93 91 92 94 92 94 89 89 91 90 89 88 88 88 89 91 91 92 92 93 94 92 91 91 92 90 86 84
80 84 89 91 96 94 89 89 93 95 94 91 89 88 86 75 76 77 71 65 74 82 90 91 91 93 94 93 95 93 92 93 94 94 93 92 91 90 92 91 91 91 91 89 87 87 86 87 88 88 89 90 91 91 93 94 93 92 91 90 90 88 86
64 64 66 69 76 83 89 91 92 93 92 89 84 76 76 67 73 75 72 72 78 84 87 88 89 90 89 92 94 97 96 93 93 94 93 91 90 89 90 90 89 89 88 88 86 86 86 87 88 87 87 89 90 90 90 93 93 92 91 91 90 88 88
76 79 79 88 89 87 81 86 88 90 94 93 89 84 78 73 72 71 71 79 77 78 83 85 88 88 88 90 92 92 92 93 93 92 92 91 89 88 90 90 90 89 87 86 86 86 87 88 87 88 88 88 89 88 88 91 91 91 89 89 87 87 87
82 88 85 91 90 86 87 86 87 89 90 90 86 81 77 79 76 69 72 75 76 80 86 87 88 89 89 89 90 91 92 92 93 92 90 88 90 89 89 89 89 88 87 86 86 85 86 86 87 88 88 88 88 87 88 89 90 91 91 87 86 85 85
87 89 90 93 92 93 91 89 89 88 89 88 84 80 85 82 76 73 74 76 76 81 86 89 90 90 89 91 91 93 94 94 93 92 91 89 90 89 88 88 88 88 87 85 85 85 85 86 86 86 87 87 87 86 86 85 91 90 89 86 85 85 84
86 88 89 92 91 89 89 89 89 89 89 87 87 87 89 88 80 83 80 77 80 85 87 90 91 90 91 91 92 93 92 93 91 92 91 91 90 90 88 88 88 88 87 86 85 85 85 85 85 86 86 86 83 81 84 87 87 89 88 85 84 84 83
84 88 90 91 89 88 85 89 91 91 91 90 90 90 90 88 85 85 83 79 79 87 89 89 93 91 91 90 90 92 91 91 93 92 91 90 90 90 89 88 88 87 87 86 85 85 85 85 85 85 86 82 79 82 85 88 87 88 88 84 84 83 83
77 84 87 87 87 87 85 85 88 89 89 85 88 85 88 85 79 82 81 77 78 87 91 93 93 90 89 88 89 89 90 92 91 90 89 89 89 90 90 89 88 87 87 86 85 85 86 86 86 86 84 81 78 76 87 88 90 89 87 85 84 83 83
73 82 86 84 83 82 77 79 85 89 89 90 92 91 90 88 88 79 75 77 85 88 90 87 88 90 89 89 90 89 89 89 90 89 88 89 90 90 89 88 87 88 88 87 86 86 87 87 86 87 83 77 73 78 86 88 88 88 87 86 84 83 83
73 80 83 83 73 65 68 86 93 93 88 88 85 85 88 87 86 83 86 87 88 88 88 86 86 87 87 88 89 90 88 87 87 89 89 89 90 90 91 90 89 88 88 88 88 88 88 88 90 85 77 74 78 85 89 88 87 86 85 85 84 83 83
72 78 79 71 62 65 82 92 94 93 93 91 88 88 88 88 88 87 86 87 87 88 89 88 88 88 90 91 90 91 92 90 88 87 88 88 88 88 89 88 89 87 87 87 88 87 88 90 88 83 79 81 85 88 88 86 86 85 85 85 84 84 83
77 74 72 58 63 80 85 87 90 93 93 92 87 83 86 88 90 87 85 86 88 88 89 90 91 90 91 92 90 90 92 93 90 89 90 90 90 88 89 87 87 86 87 87 88 87 89 89 88 87 85 88 90 88 89 87 86 85 84 83 84 83 83
69 71 71 70 74 73 78 80 83 87 82 84 81 73 80 87 89 89 86 87 88 89 90 91 92 92 91 87 89 95 95 91 92 92 92 94 91 91 90 90 88 88 89 88 90 88 88 89 89 89 91 91 89 89 88 88 86 86 85 83 83 83 83
77 70 69 70 65 61 72 81 88 92 94 92 90 82 79 87 90 91 89 86 87 87 89 90 90 88 83 81 86 93 96 94 91 93 93 94 92 91 91 89 90 88 89 90 90 90 89 89 90 91 91 90 88 86 87 88 87 86 85 84 84 83 83
74 71 66 65 62 68 80 80 86 92 95 93 91 80 73 85 89 91 91 89 88 88 88 88 88 83 79 81 86 89 93 94 95 93 93 95 94 91 91 90 88 88 88 88 89 89 89 88 89 90 90 90 88 86 87 88 88 86 84 84 84 84 84
72 71 68 66 71 71 80 87 91 95 94 92 84 65 68 84 90 92 90 88 88 88 88 89 86 82 78 82 86 94 94 94 94 91 90 90 89 89 90 91 89 88 87 87 87 88 88 88 90 90 90 89 88 87 87 89 87 85 85 85 85 86 86
70 65 70 73 75 80 84 88 91 92 94 88 70 61 76 87 89 90 89 89 90 89 88 88 84 87 88 89 91 95 95 94 92 92 92 91 91 90 92 90 86 87 87 87 87 88 88 88 90 90 90 88 87 86 86 85 84 86 87 87 86 86 85
70 72 68 70 76 81 87 91 92 94 85 69 69 77 84 88 88 90 91 90 90 90 88 88 89 90 93 93 93 93 94 92 90 91 91 91 92 94 91 86 86 87 89 87 89 91 89 89 90 90 88 86 85 85 85 84 85 87 87 87 86 85 84
76 72 69 65 56 70 88 89 88 88 76 72 80 84 87 90 89 88 88 89 89 90 87 90 89 91 94 95 94 93 94 90 89 89 90 88 89 89 87 86 89 90 88 88 90 91 92 93 91 90 89 86 85 85 84 85 87 87 87 87 86 84 83
69 68 63 58 76 79 89 87 74 78 83 84 85 84 85 88 88 88 88 89 89 89 87 87 88 89 90 90 90 90 90 88 90 89 89 89 90 89 92 92 90 92 88 88 89 91 93 92 91 90 88 85 84 83 83 86 87 86 86 86 85 83 82
69 66 70 76 82 85 89 86 83 86 86 87 86 86 86 86 87 88 88 87 89 89 89 87 86 86 89 89 90 88 88 89 89 87 87 89 88 90 91 92 90 90 90 87 88 89 90 90 91 90 88 85 84 83 85 86 85 84 84 84 83 81 80
81 83 80 83 83 85 87 91 90 89 89 89 89 86 84 85 86 87 86 86 87 88 88 87 86 86 88 89 89 89 89 89 88 87 88 89 90 92 92 90 89 90 91 89 88 87 86 86 85 85 86 85 83 83 86 85 85 84 83 81 80 79 79
71 62 77 81 80 83 85 87 88 89 89 88 87 84 83 84 86 87 87 86 85 86 86 86 85 86 89 89 88 87 88 88 86 87 86 87 88 88 86 86 87 88 89 89 87 86 83 85 85 85 86 86 84 84 84 86 85 83 81 79 78 79 79
72 71 77 81 84 82 85 85 82 82 83 85 86 85 85 86 87 88 88 88 87 88 87 86 85 86 89 88 86 87 85 84 86 85 85 85 86 86 86 86 87 87 86 87 87 86 85 86 85 86 87 87 87 86 88 88 88 83 80 79 79 79 80
79 78 77 81 82 83 83 83 82 82 83 83 84 85 86 87 86 86 87 89 88 88 88 88 86 85 87 89 86 83 82 85 87 86 85 84 84 84 84 84 85 84 85 85 83 83 82 83 84 84 84 87 91 89 87 87 86 82 80 79 80 80 80
72 69 72 76 72 73 79 80 81 81 83 83 83 84 84 84 83 83 85 87 90 90 89 88 88 83 84 87 85 82 86 85 84 84 83 83 84 84 84 84 83 82 82 82 81 80 80 82 82 82 82 83 86 91 90 87 84 81 79 79 80 81 81
71 71 76 75 75 75 76 78 80 82 83 82 81 81 81 83 84 85 83 84 85 86 85 85 84 81 82 85 85 85 90 83 84 83 83 83 83 83 84 82 81 81 80 80 80 79 80 80 81 81 81 83 83 86 85 85 84 81 80 78 78 80 81
77 80 77 77 74 72 75 80 81 82 82 81 81 83 83 82 83 84 83 82 81 83 85 85 86 81 83 84 86 84 82 84 84 84 84 85 84 84 84 82 80 80 79 79 78 78 80 80 80 81 83 83 81 85 83 83 82 81 80 78 77 78 81
76 78 78 77 76 77 80 82 83 84 83 81 80 80 81 81 84 84 82 82 83 84 84 84 84 83 81 81 85 84 79 84 83 83 83 82 84 84 85 83 81 79 79 79 79 80 80 80 80 81 81 81 81 84 82 83 82 80 79 78 79 80 80

ECMWFFLT2_sfc_temp_015.txt.gz
Temp
88 89 92 91 90 66 72 77 65 68 80 77 64 67 73 70 64 58 72 67 71 74 76 80 80 81 81 82 83 84 82 82 81 81 83 84 83 83 83 83 81 82 82 82 83 82 82 82 81 81 79 79 78 78 77 76 76 76 76 76 75 75 74
87 93 92 93 93 90 79 68 71 84 88 84 69 59 61 58 53 55 68 62 61 65 57 71 78 78 79 80 80 84 83 82 81 81 81 83 82 83 83 83 82 83 83 82 83 83 83 83 82 81 79 79 79 78 78 76 76 75 75 76 75 75 74
89 94 92 88 90 95 79 79 89 76 61 64 67 66 53 53 52 53 59 67 66 64 63 72 70 75 74 76 78 79 79 80 78 79 82 83 82 83 83 83 81 82 82 82 83 83 84 83 82 81 80 80 79 78 78 78 76 76 76 77 76 75 75
88 89 85 70 75 86 92 89 84 88 76 66 61 63 60 56 50 55 54 65 54 66 67 73 74 76 76 77 77 79 81 81 79 80 81 82 80 81 83 83 82 82 83 84 84 84 83 82 82 81 81 81 80 79 78 77 77 76 76 75 75 74 75
87 73 78 75 75 69 75 78 73 78 77 79 76 70 67 54 51 49 52 51 57 64 73 75 74 75 77 77 76 76 78 81 82 82 83 82 82 79 82 82 82 83 84 85 85 85 84 83 83 83 82 82 81 80 79 78 76 76 76 75 75 74 74
74 75 85 85 85 83 76 72 69 71 69 65 60 55 76 70 58 47 54 53 58 72 79 74 78 80 80 79 78 76 80 80 79 81 82 81 79 79 82 83 84 85 84 84 85 84 84 83 83 83 82 82 81 80 80 80 79 78 77 75 74 74 74
76 83 88 92 91 89 86 82 76 80 75 74 65 49 58 71 68 73 59 54 59 76 76 76 78 81 82 81 81 80 79 79 82 81 84 82 82 81 83 85 85 85 84 84 84 82 82 81 82 82 81 82 81 81 80 80 79 78 80 77 76 75 74
83 87 90 90 92 90 84 84 85 82 77 76 69 60 64 63 64 61 61 54 61 71 72 78 79 78 81 78 78 78 79 79 81 81 79 80 80 81 83 85 85 84 84 83 82 80 80 80 80 81 81 81 81 81 81 81 79 79 79 78 77 75 75
65 74 77 81 88 87 78 74 78 83 84 83 80 76 68 64 64 64 57 49 59 71 75 75 78 80 82 81 81 78 78 79 79 79 78 78 78 80 81 82 83 82 82 81 80 80 80 80 80 80 80 81 81 80 82 82 81 81 80 79 78 77 76
50 52 51 53 66 73 76 81 81 80 81 79 72 66 62 54 58 64 54 57 62 70 73 75 75 75 76 77 80 82 78 78 78 77 77 77 78 78 80 78 81 81 80 80 80 80 80 80 80 79 80 81 81 81 81 83 82 81 80 80 79 77 77
53 55 58 75 78 75 72 78 79 81 83 81 75 66 60 56 50 59 52 64 61 67 70 72 75 76 75 76 77 77 77 76 76 77 76 78 78 77 79 77 79 79 78 79 80 79 80 80 80 79 80 80 81 80 81 83 82 81 79 79 78 77 78
68 73 75 82 83 76 78 79 79 81 80 80 77 68 66 61 59 48 54 63 65 67 71 72 73 75 74 75 75 77 78 78 78 75 75 79 77 77 77 76 77 77 78 78 78 78 79 79 80 80 80 81 80 80 81 82 82 82 80 79 78 77 77
77 80 80 83 82 83 82 82 82 80 81 78 75 66 74 68 63 58 61 64 66 70 74 75 74 76 76 76 75 76 76 77 76 75 76 76 77 77 77 76 77 77 77 77 78 78 78 79 78 79 80 80 80 80 81 81 82 81 79 78 77 77 76
78 78 81 83 81 80 80 80 80 80 80 79 79 78 77 73 63 68 68 65 68 74 75 78 78 77 78 79 79 77 77 78 76 76 75 77 77 77 77 76 76 77 78 77 77 78 77 78 78 79 79 80 80 80 80 81 80 79 78 77 76 76 75
70 77 81 82 80 77 75 78 80 81 80 79 78 80 80 76 70 71 70 65 65 74 80 80 76 77 78 77 78 78 75 76 77 76 76 75 76 77 77 77 77 76 77 77 77 77 77 78 78 79 79 80 80 81 80 80 78 78 78 76 76 76 74
64 75 77 80 81 80 78 77 78 80 80 76 78 74 77 73 68 70 67 62 64 75 77 77 75 75 76 75 75 74 73 75 75 74 75 75 76 75 77 77 77 76 76 76 76 77 78 78 79 79 79 79 79 77 76 76 77 76 77 76 75 74 74
61 72 77 78 79 76 71 71 77 79 79 77 79 80 80 78 80 67 64 61 69 71 75 75 71 75 72 72 73 73 74 73 75 75 76 76 76 75 74 76 77 77 78 78 77 78 79 80 80 80 80 76 68 66 67 67 69 70 73 76 74 74 74
61 72 75 76 65 55 53 72 79 77 75 74 73 73 76 78 76 69 73 75 75 76 75 73 71 74 74 74 74 75 73 73 75 76 76 77 78 78 78 76 78 78 78 79 80 80 80 80 80 79 73 66 67 69 70 72 71 73 74 74 75 74 74
59 63 64 56 52 54 68 76 80 82 81 79 74 75 74 78 76 76 75 75 75 73 74 74 74 74 75 77 78 77 77 75 72 72 74 74 75 75 75 75 75 77 78 78 77 76 77 78 74 69 68 69 69 70 72 72 73 72 72 71 72 74 74
63 61 58 48 50 64 73 77 80 81 80 77 75 69 73 74 77 73 74 76 77 76 75 75 74 74 75 75 73 76 78 79 77 76 76 75 76 77 77 76 76 75 78 78 77 76 77 74 71 69 69 70 70 70 72 72 70 70 70 71 72 73 73
57 58 55 55 63 66 70 72 74 75 69 70 67 61 64 75 76 75 73 74 75 74 74 75 76 77 78 72 72 78 81 76 79 81 78 82 79 80 78 79 77 77 79 79 78 75 75 73 69 69 70 71 70 69 68 68 67 68 69 71 73 74 74
61 55 53 54 56 52 59 66 76 82 84 83 77 69 63 72 75 76 74 72 73 74 76 76 76 73 68 66 71 78 82 81 79 82 83 84 81 79 79 79 78 78 78 79 77 75 75 73 70 70 70 69 68 68 68 68 68 68 68 71 73 75 75
63 58 53 51 51 56 67 69 77 82 83 83 77 69 57 68 73 77 78 75 73 74 75 74 73 68 61 66 72 77 79 84 84 81 81 82 81 79 79 79 78 78 77 78 77 76 75 71 70 71 70 68 66 67 69 69 69 69 70 73 74 75 75
59 58 54 52 60 60 66 76 77 81 82 84 72 55 50 68 71 74 77 77 76 76 76 75 71 68 63 67 70 81 83 82 81 77 78 78 79 79 79 79 78 76 77 77 76 75 73 70 71 71 69 66 66 69 69 70 69 69 72 74 76 77 76
58 59 57 61 62 68 73 76 80 80 82 73 57 46 58 69 72 76 76 77 77 74 74 71 68 73 74 73 76 82 83 82 80 80 80 79 80 79 80 79 79 76 76 77 76 75 72 71 71 70 68 67 67 69 69 69 69 71 74 75 75 74 74
58 58 57 56 61 65 74 76 80 81 76 58 54 64 69 71 73 76 78 76 76 75 74 73 72 75 79 80 81 81 82 79 77 78 77 78 79 79 77 77 78 77 77 76 77 75 72 72 72 71 69 68 67 68 69 69 71 74 75 75 75 74 74
61 57 52 46 45 58 79 78 73 73 62 60 65 69 74 78 75 75 75 76 75 75 73 75 75 78 79 80 80 79 78 76 76 76 76 74 75 75 74 75 77 78 75 72 72 74 74 74 72 72 71 69 69 70 70 72 75 77 78 77 76 76 75
51 52 47 46 60 64 79 74 60 68 69 70 71 72 70 74 74 73 72 74 75 76 75 75 76 77 76 76 76 75 76 77 76 75 75 75 74 74 77 75 71 71 68 67 68 70 73 75 74 73 72 70 71 71 72 76 77 77 77 76 76 74 74
57 51 58 65 69 72 77 75 73 74 76 77 76 73 72 72 73 74 74 73 76 76 76 75 74 74 75 73 76 75 76 75 76 74 75 73 72 71 71 70 69 70 69 67 67 68 71 75 75 75 75 74 73 73 73 75 76 76 75 74 73 73 72
65 68 67 66 68 72 76 79 78 77 77 77 77 75 72 71 74 75 73 74 75 75 75 73 72 73 73 73 74 74 73 72 73 72 71 69 70 70 69 68 69 69 69 68 68 66 71 77 76 75 75 76 74 73 75 75 76 76 74 72 71 70 70
53 44 63 64 62 63 73 76 78 79 79 76 75 73 73 73 75 76 75 73 74 75 75 74 72 73 74 73 71 69 68 69 69 70 69 68 68 68 67 68 69 68 68 68 68 68 70 76 77 78 77 76 75 75 75 76 76 75 73 72 71 69 69
56 54 59 65 70 70 73 73 72 73 75 76 75 74 73 74 75 75 75 76 76 77 76 74 71 72 74 71 70 68 67 67 67 66 67 66 66 67 68 67 68 68 68 67 66 66 68 75 77 77 78 77 77 77 78 79 77 74 72 71 71 70 69
61 64 65 64 66 72 73 74 73 72 73 73 74 75 76 76 75 74 75 77 76 76 74 73 71 71 71 72 72 70 68 67 67 66 67 66 66 66 67 67 67 65 65 66 66 66 67 74 76 76 76 79 82 78 78 76 73 72 71 72 72 71 70
54 54 57 61 55 57 66 72 74 73 74 75 74 74 75 74 72 73 73 74 75 76 76 75 73 70 71 72 71 72 69 68 66 66 66 66 67 67 67 69 69 68 68 67 67 68 67 71 74 75 75 76 79 80 77 75 73 72 72 72 71 71 70
52 63 67 66 63 63 68 70 72 73 73 73 73 71 71 72 72 74 72 72 72 72 74 75 75 71 72 73 73 71 70 67 67 67 67 67 67 68 69 69 69 68 68 68 65 64 64 66 68 68 71 75 74 76 75 75 74 72 71 69 68 71 69
68 71 69 69 65 63 68 71 72 72 72 73 73 74 73 72 72 73 73 72 71 71 72 74 76 74 72 73 73 71 68 68 67 68 69 69 70 71 72 71 69 68 68 67 67 65 65 67 70 72 74 73 73 75 74 73 72 70 69 68 67 66 67
65 69 70 70 69 71 72 72 71 72 73 73 72 72 72 73 74 73 72 70 71 73 72 73 75 74 73 73 72 69 69 70 69 70 70 70 72 72 73 72 69 69 70 70 69 68 68 70 71 72 71 71 72 75 72 72 71 70 69 68 68 68 67

ECMWFFLT2_sfc_temp_021.txt.gz
Temp
76 76 77 77 79 59 62 65 61 65 68 68 54 52 52 53 51 51 48 56 55 57 68 66 64 71 71 73 75 77 76 75 76 75 75 76 77 77 76 77 77 76 76 76 77 77 77 77 77 76 76 77 76 76 75 74 75 75 74 74 73 73 71
75 79 79 79 79 74 64 61 64 66 68 64 60 53 47 46 44 45 51 56 53 57 52 58 66 65 67 72 73 77 76 74 74 76 75 76 77 77 78 78 78 77 77 77 77 78 78 78 78 77 77 77 77 77 76 75 75 74 73 74 73 72 71
73 78 76 75 77 79 78 75 72 71 55 58 52 50 47 45 45 44 49 51 49 53 53 57 65 63 64 68 71 73 72 73 75 76 76 76 77 77 76 77 76 76 76 77 77 78 79 79 78 78 78 78 78 77 77 76 75 75 75 74 74 73 72
71 74 71 64 72 74 77 72 70 69 66 52 54 57 50 53 43 44 44 48 52 55 52 64 68 66 66 66 67 71 74 75 76 77 76 76 75 75 76 77 77 76 77 78 78 78 78 78 78 78 79 79 78 77 77 76 77 76 74 73 73 72 72
71 61 65 68 71 64 65 67 62 67 66 62 60 58 53 54 40 40 38 46 45 50 56 64 69 68 67 69 70 72 74 75 77 77 77 76 76 76 76 77 77 77 77 78 79 80 80 80 80 80 79 78 78 78 77 77 76 75 74 74 73 72 72
59 60 66 73 73 75 69 70 64 65 59 60 55 53 57 52 51 40 43 48 45 56 61 64 67 67 67 71 73 73 74 75 75 76 77 77 76 76 77 78 78 78 77 78 79 79 79 79 79 79 79 79 78 77 78 77 77 76 75 74 73 72 71
65 70 74 74 76 77 76 75 70 70 62 58 52 47 50 55 55 53 48 49 53 58 60 63 67 67 70 71 72 72 73 74 76 77 78 78 78 78 79 78 79 79 77 78 78 78 78 78 78 79 78 78 78 78 78 77 77 76 76 75 73 72 70
63 71 73 74 73 72 69 71 70 68 62 63 60 54 50 58 49 53 50 49 43 52 55 61 64 64 66 69 72 72 74 75 76 76 77 76 76 77 79 79 79 78 77 76 76 76 76 77 77 77 78 78 78 78 78 78 77 76 76 75 73 71 71
56 64 66 66 65 71 63 61 65 70 69 68 58 55 53 56 52 55 51 44 46 55 59 63 64 67 70 70 72 73 73 73 75 75 76 76 77 77 76 76 76 75 74 73 74 76 76 77 77 77 77 77 78 77 78 78 77 77 76 74 72 71 72
46 45 47 52 53 59 60 61 66 68 71 66 62 59 57 51 49 51 49 45 48 55 61 67 66 64 67 69 72 74 75 74 75 75 75 75 76 75 75 75 73 73 74 75 75 75 76 77 77 77 77 77 77 78 77 78 77 75 74 73 72 72 71
54 55 50 55 58 57 63 64 68 68 70 71 67 53 50 54 42 53 46 55 56 61 66 63 65 64 69 69 68 70 71 72 74 75 75 75 75 74 75 75 75 74 73 74 75 75 76 77 77 77 77 77 77 77 77 77 77 75 72 71 71 71 71
64 64 60 64 66 66 66 67 68 68 68 66 64 61 57 51 52 46 42 46 62 62 65 64 65 65 65 68 70 71 71 72 73 73 73 76 73 73 74 73 73 73 73 74 74 75 76 76 77 77 77 78 77 77 76 76 75 73 71 70 70 70 70
67 71 70 72 66 66 67 69 70 68 68 63 66 63 59 57 61 56 51 50 60 66 69 69 69 69 70 71 71 74 75 73 70 69 70 71 73 74 73 72 72 72 72 73 74 74 75 76 76 76 76 76 76 74 74 74 73 71 70 70 70 70 69
66 67 70 73 70 70 69 68 68 70 69 66 69 68 60 66 58 62 58 55 62 70 72 72 74 74 75 73 70 68 70 72 70 70 71 73 73 73 72 71 71 72 73 73 73 74 74 75 75 76 75 75 75 74 73 73 71 70 70 71 70 69 68
63 66 69 70 68 68 67 69 70 69 67 67 68 66 60 64 58 56 59 59 59 68 74 77 68 63 63 67 70 72 72 70 70 71 72 73 73 72 71 71 72 72 72 73 72 72 73 74 75 75 76 75 74 73 72 71 70 70 71 70 70 70 68
57 66 67 68 67 65 66 67 69 65 63 62 61 59 61 62 58 54 55 54 58 68 62 64 63 65 67 69 69 69 69 71 71 71 72 71 69 69 70 70 70 70 70 69 70 71 73 73 74 74 73 72 73 72 71 71 70 70 71 71 70 70 69
54 63 67 66 64 63 59 55 58 66 65 65 64 62 62 61 61 57 55 56 68 65 63 66 63 64 66 66 69 70 67 67 70 71 71 69 68 69 68 69 70 70 70 70 69 69 70 72 73 74 73 72 72 72 71 72 71 70 71 70 69 67 67
49 59 62 63 59 53 48 56 63 63 66 67 64 60 60 60 58 56 61 64 63 62 65 68 64 65 65 66 65 68 69 68 65 66 66 68 68 66 66 67 68 67 67 69 70 72 73 73 74 73 73 73 74 74 73 71 70 69 69 67 67 67 68
51 54 59 57 52 49 58 65 69 70 70 68 65 62 61 60 60 59 63 60 65 66 69 67 64 64 66 65 67 68 67 68 69 68 66 65 66 67 67 66 67 68 69 69 68 68 69 71 71 72 71 72 70 70 71 70 69 68 68 67 67 67 68
49 50 54 53 49 58 62 68 68 70 72 70 70 64 65 63 62 59 59 60 62 64 65 68 70 70 68 66 65 67 67 69 70 68 68 68 68 68 68 69 68 67 67 68 69 69 70 70 71 72 71 71 71 70 70 69 68 68 67 67 67 67 67
49 46 47 53 58 60 61 63 66 65 66 67 68 57 61 62 63 60 60 61 63 63 63 65 67 70 72 70 69 68 69 67 69 75 73 72 71 72 70 70 71 70 69 69 70 68 69 70 70 71 70 70 70 68 68 68 68 67 67 67 67 67 68
45 46 45 51 46 46 54 58 66 70 69 69 70 67 60 62 65 63 61 64 64 64 65 66 66 70 71 63 67 69 67 66 67 67 71 73 71 70 71 70 69 67 67 69 69 69 69 69 69 69 69 70 68 67 67 67 67 67 67 67 67 67 67
48 44 45 43 43 51 56 61 66 69 69 68 66 64 57 63 64 65 63 64 64 68 68 66 69 70 64 60 65 62 63 68 69 71 69 71 70 68 69 69 70 67 67 68 68 67 66 66 65 67 68 68 67 66 66 67 67 67 68 68 68 67 67
44 40 39 46 49 52 59 64 67 69 69 67 64 53 50 59 65 64 64 64 62 61 61 62 64 66 64 62 63 64 67 67 67 69 70 70 68 68 68 68 69 68 69 69 66 66 66 65 65 67 67 67 66 66 67 67 67 68 69 69 69 68 67
48 49 46 47 55 58 61 63 66 67 66 60 55 45 54 63 63 64 65 65 63 62 63 63 64 61 60 61 63 67 69 71 70 69 69 68 69 70 70 70 71 69 68 67 67 66 66 65 66 67 67 66 66 66 67 67 67 69 69 69 67 67 67
46 43 43 46 46 56 64 67 66 66 62 48 48 58 58 62 61 63 66 66 65 66 65 65 62 62 65 68 69 69 69 67 66 68 69 70 70 70 69 71 69 68 67 65 65 64 65 67 67 67 67 66 66 65 66 66 66 67 68 67 66 67 67
46 42 43 44 43 54 64 64 61 61 55 54 58 62 63 63 62 63 64 65 64 67 66 65 65 68 69 69 69 67 66 66 66 65 65 66 67 68 67 67 68 69 66 64 64 64 65 66 66 66 66 66 65 64 64 64 65 66 66 66 67 67 67
44 40 40 41 51 55 65 60 55 58 59 63 62 63 61 63 63 63 63 63 64 64 64 64 66 66 67 68 68 69 67 65 65 64 64 64 65 66 68 68 67 68 66 65 64 64 65 64 64 65 65 65 64 63 62 64 64 65 65 65 66 66 66
48 46 46 53 54 58 63 64 63 63 66 68 67 66 64 64 64 64 64 63 64 65 67 67 67 67 66 65 65 66 66 66 65 64 63 63 63 64 64 65 66 66 65 64 64 63 63 63 63 63 64 65 65 62 62 64 64 65 65 65 64 65 65
59 59 57 58 58 61 64 67 67 67 67 66 68 67 64 64 65 67 66 66 66 66 66 67 66 66 66 65 65 65 65 65 63 62 62 62 62 63 64 64 65 64 65 64 64 63 63 63 63 64 64 64 64 62 64 65 65 65 65 65 65 65 66
51 47 59 58 59 60 62 63 65 67 67 66 66 65 64 64 66 67 67 67 65 66 65 64 64 64 64 65 64 64 64 64 62 62 61 62 62 62 62 64 65 64 64 63 63 63 63 63 64 64 63 64 64 64 65 66 66 66 66 66 66 66 67
49 51 57 59 61 60 61 61 63 62 64 65 65 64 64 64 65 66 66 66 65 66 66 63 63 63 64 65 63 64 63 63 63 62 62 62 61 61 62 64 65 64 64 64 63 63 63 63 63 64 64 63 64 65 67 68 68 67 67 67 66 65 66
53 59 59 59 60 61 61 62 63 63 64 64 65 66 67 67 65 64 64 66 64 64 63 63 63 63 64 65 64 65 64 63 63 63 63 61 62 62 63 64 65 64 64 64 64 63 63 63 63 64 64 65 66 65 66 67 67 66 66 67 66 65 65
53 51 56 59 56 52 58 61 63 64 65 65 64 64 65 65 64 65 66 66 67 67 67 66 66 64 63 65 63 65 66 64 64 63 62 62 61 61 61 62 62 62 63 63 63 63 62 62 63 64 64 66 66 67 67 66 66 66 66 65 65 64 64
53 56 60 58 61 59 60 63 63 63 66 67 65 64 64 64 65 67 68 67 65 65 65 65 64 63 63 64 64 64 65 64 63 63 63 62 62 61 62 61 61 62 62 63 62 61 61 62 63 64 64 65 66 66 66 66 66 66 65 64 64 64 64
60 62 60 60 61 60 60 62 63 64 64 67 66 66 66 66 66 66 66 65 64 63 64 65 64 62 63 64 64 64 65 64 63 62 61 61 62 62 62 62 62 62 61 61 62 62 61 62 64 64 64 65 65 67 67 67 67 66 66 65 64 64 64
56 61 63 63 62 61 62 63 63 64 66 66 65 64 65 65 66 66 65 64 64 65 63 64 65 64 63 65 64 64 63 64 64 63 63 63 63 62 63 62 62 63 63 63 62 62 62 63 63 64 64 65 65 67 66 67 68 67 67 67 66 65 64

ECMWFFLT2_sfc_temp_024.txt.gz
Temp
68 70 70 71 74 59 59 62 58 60 64 66 50 50 51 50 46 47 46 53 53 59 67 70 65 68 71 72 73 74 73 70 71 73 74 75 75 76 76 76 76 76 76 76 77 76 76 76 76 76 76 76 76 76 75 75 75 75 74 75 74 74 74
69 70 73 73 75 68 60 57 62 62 64 61 58 50 43 42 42 43 47 53 52 55 52 56 66 67 71 69 72 75 73 68 70 73 73 74 75 76 76 76 77 77 77 77 77 78 78 77 77 76 76 77 77 77 76 75 75 74 74 74 74 74 74
68 70 71 70 71 71 74 62 67 68 53 56 47 49 44 42 42 40 45 50 49 53 56 55 65 66 69 68 70 72 70 69 71 73 74 74 76 76 75 76 75 76 76 76 76 77 78 78 77 77 78 78 77 77 77 76 75 76 75 75 75 75 74
65 67 67 61 67 71 68 69 66 65 62 47 51 54 48 52 41 41 43 47 50 54 60 66 69 68 70 71 68 69 73 73 73 74 74 74 74 75 75 76 76 76 77 78 78 78 78 78 77 78 78 78 78 77 77 76 77 76 75 74 75 74 74
65 58 60 65 68 58 61 63 57 63 64 60 58 55 50 51 40 40 40 44 43 52 59 66 73 71 71 71 70 70 73 75 76 76 75 73 74 75 75 76 76 76 77 78 78 79 79 79 79 79 79 78 78 78 77 77 76 75 75 75 75 74 73
56 57 61 68 68 68 63 65 62 61 55 57 54 52 54 47 50 38 41 48 44 59 62 68 71 73 73 71 73 73 73 74 75 76 75 74 75 75 76 77 78 78 77 77 78 78 78 78 78 78 78 78 78 78 78 78 78 77 76 75 74 74 73
63 64 68 66 69 71 70 71 67 68 63 57 52 45 47 51 52 50 45 47 53 60 60 68 71 65 67 69 70 72 72 73 74 74 76 75 76 76 77 78 78 78 77 77 77 77 76 77 77 77 78 78 78 78 78 78 77 77 78 77 75 74 72
59 65 66 67 67 69 67 66 65 65 65 65 62 57 50 55 47 51 50 49 42 50 54 57 61 59 61 64 67 70 71 70 69 71 72 73 73 74 77 78 78 77 76 75 75 75 75 75 76 76 77 77 78 78 79 78 77 77 78 77 75 73 72
54 58 60 63 61 67 60 61 63 64 64 64 57 54 49 58 50 55 50 45 46 54 54 56 57 59 63 65 67 68 69 68 69 71 71 72 73 74 74 74 74 73 73 73 73 74 74 75 76 76 76 77 77 77 78 79 78 78 78 77 74 72 72
42 42 47 51 57 57 54 57 63 63 67 61 59 57 54 50 46 50 47 44 47 55 55 60 62 60 61 63 65 68 69 68 69 70 71 71 72 72 72 71 71 72 72 73 73 73 74 75 76 75 76 77 77 77 78 79 79 77 77 76 74 72 72
52 54 48 51 53 52 61 59 64 63 65 67 66 50 49 54 40 51 42 52 55 60 65 63 63 60 63 65 64 66 68 68 70 70 71 72 72 72 71 71 72 70 70 71 72 73 74 75 75 76 76 76 77 77 77 78 78 77 76 74 73 72 72
63 64 61 60 63 63 61 62 62 65 65 62 63 58 58 49 50 45 42 42 60 61 63 65 63 61 61 62 64 67 68 69 70 70 69 73 70 69 69 69 69 70 71 71 71 72 73 74 75 75 76 77 76 76 77 77 77 77 75 73 72 72 72
64 67 67 63 61 64 62 63 64 63 62 60 62 59 62 54 60 58 54 46 57 62 67 70 69 68 68 67 68 70 71 69 67 68 69 70 71 70 70 69 69 69 70 70 70 71 72 73 73 74 75 75 75 76 76 76 76 76 74 72 72 72 71
64 64 65 63 62 62 63 63 62 63 62 61 64 65 62 62 59 63 62 52 61 67 70 70 71 71 71 68 66 65 68 70 69 69 69 71 71 71 70 69 69 69 70 70 70 71 70 71 72 73 74 74 75 75 75 76 75 74 73 72 71 71 70
59 64 64 63 62 62 63 65 65 64 62 61 63 65 60 59 60 58 58 54 58 64 66 71 65 61 62 63 68 70 69 67 68 69 70 70 71 71 70 69 69 69 69 70 69 69 70 70 71 72 73 73 74 75 74 74 74 74 73 71 71 71 70
54 60 61 62 61 61 61 63 64 63 60 58 57 59 58 59 58 54 52 52 57 65 62 62 60 63 66 67 66 67 66 68 69 69 70 70 69 69 69 69 69 68 68 68 69 70 70 70 71 71 72 72 73 73 74 74 74 73 72 72 71 70 69
48 60 61 61 58 57 53 56 62 62 62 63 61 63 60 63 63 56 55 57 65 69 64 66 62 65 67 66 64 66 66 65 69 69 69 68 69 70 69 69 69 69 70 70 69 69 69 70 71 71 72 72 72 73 73 73 72 71 71 71 71 70 69
44 56 57 56 53 47 46 50 59 65 64 63 63 60 60 57 59 59 62 65 59 58 62 67 65 63 66 71 69 69 70 67 65 66 68 69 70 68 68 69 69 68 67 68 68 69 70 70 73 73 74 74 74 74 74 71 71 70 70 70 70 69 68
48 49 52 50 45 46 49 56 61 61 67 69 65 57 57 58 55 56 59 60 59 61 67 70 70 69 66 65 65 64 66 68 69 69 68 67 68 68 67 66 67 68 68 68 69 69 70 71 71 72 72 74 73 72 71 70 70 70 70 70 69 69 68
47 50 48 43 39 50 59 63 63 65 65 64 63 58 58 58 58 56 54 57 57 58 62 62 59 62 63 62 63 64 66 69 71 70 69 68 68 68 68 68 67 68 69 70 70 70 70 70 71 72 73 72 72 71 71 71 69 70 69 69 68 68 68
47 42 44 47 49 57 60 60 61 60 59 60 60 54 59 58 59 57 55 56 57 59 62 61 63 65 67 63 64 66 65 65 68 70 69 69 69 70 69 71 71 69 70 70 70 68 69 70 70 71 71 71 71 70 69 70 69 69 69 68 68 68 68
41 43 42 49 48 44 51 53 60 64 65 64 61 57 58 58 60 59 56 58 58 60 61 63 63 67 68 64 65 68 65 64 66 68 68 69 69 68 69 65 66 66 66 67 68 69 68 68 69 69 70 70 69 69 68 68 68 68 68 68 68 68 67
46 46 42 37 39 46 48 56 61 64 63 63 62 56 57 60 59 59 59 59 59 60 62 61 63 67 60 59 63 66 64 64 68 68 67 68 67 66 67 69 68 66 67 68 68 68 68 67 67 68 69 69 68 68 68 68 68 68 67 68 68 68 67
42 38 38 43 44 53 59 59 61 66 64 64 61 51 50 54 61 60 60 61 60 60 61 63 62 62 61 61 65 67 65 66 65 65 66 66 68 68 68 67 67 68 69 70 68 67 67 66 66 68 68 68 68 68 68 68 67 67 67 68 69 69 68
44 45 41 41 50 56 56 59 63 64 64 63 54 46 53 59 58 60 62 63 63 63 64 66 65 62 61 61 63 65 67 69 68 68 68 68 68 68 68 69 70 68 67 68 68 67 66 65 66 67 68 68 67 67 67 67 67 67 68 68 68 68 68
44 40 40 43 44 51 58 61 61 61 63 53 48 56 59 58 58 60 65 66 66 67 66 66 64 63 65 67 68 68 68 67 66 68 69 70 69 70 70 70 69 68 67 66 65 65 64 65 66 67 67 67 67 66 66 66 66 68 68 68 68 68 68
44 40 42 46 45 54 60 58 59 57 52 49 56 59 59 62 61 62 62 64 64 67 64 64 64 65 66 67 67 66 66 66 66 66 66 67 67 67 68 68 69 68 65 64 64 63 65 65 66 66 66 66 66 65 65 65 66 67 68 68 68 68 67
41 39 42 43 49 53 61 57 54 57 58 61 60 61 58 60 61 62 63 63 64 66 65 65 65 66 67 66 66 67 66 65 65 64 64 64 64 65 66 67 66 67 64 63 63 64 64 65 65 65 66 66 65 65 64 65 66 67 67 67 67 67 67
46 45 43 50 54 56 59 60 59 60 62 63 62 63 63 62 62 64 65 63 65 67 67 67 67 67 66 66 67 67 66 66 65 64 62 62 63 63 64 65 66 66 65 63 63 63 64 64 64 64 65 65 66 64 64 65 66 67 67 67 66 66 66
55 55 55 57 57 58 58 62 63 64 64 64 64 63 62 62 62 63 64 64 65 65 66 66 64 64 65 67 68 67 67 67 66 65 66 65 64 64 64 64 65 65 64 64 63 63 63 64 64 65 64 66 66 64 65 66 66 66 67 66 66 66 66
51 47 58 57 57 59 59 60 62 64 64 63 63 63 61 61 62 63 63 63 63 64 65 65 63 63 65 65 63 64 64 65 65 64 64 63 62 62 62 63 65 64 64 63 63 64 64 63 64 64 64 65 65 64 65 66 66 66 66 66 66 66 66
48 50 55 58 59 58 60 59 59 59 60 62 62 60 61 61 62 62 62 63 63 64 63 62 62 61 62 62 62 63 64 64 63 63 63 63 62 61 61 63 64 63 64 63 64 64 64 63 64 64 64 65 65 65 67 68 67 66 66 66 66 65 65
52 56 57 57 60 60 59 61 61 60 61 61 62 62 63 64 63 63 63 64 63 62 61 61 62 62 62 61 61 63 61 62 62 62 62 61 62 61 63 63 64 63 63 64 64 64 64 63 63 63 64 65 66 65 66 66 65 65 64 66 65 64 64
51 52 53 57 53 50 56 59 60 61 62 63 63 63 63 63 62 63 63 63 64 64 63 63 63 60 60 62 62 64 63 63 62 62 62 61 61 61 62 63 62 63 64 64 64 64 62 63 63 63 64 65 66 68 67 67 66 65 65 65 65 65 65
46 54 59 56 58 58 57 59 61 61 63 64 62 61 62 62 63 64 64 63 63 63 63 63 63 61 60 61 63 64 64 63 63 62 62 63 63 63 63 63 63 63 63 64 63 63 62 62 63 64 64 65 66 67 67 67 66 66 66 66 65 66 66
54 57 56 58 58 56 56 59 60 61 62 63 62 63 63 63 63 63 62 61 61 60 62 62 62 61 61 61 63 62 62 63 64 64 64 63 62 62 63 62 62 62 63 63 63 63 62 62 64 64 65 65 66 68 67 67 67 67 66 65 65 64 65
52 55 57 58 57 56 57 58 59 60 62 64 63 62 63 63 64 63 62 61 61 62 61 61 61 61 61 62 62 61 61 62 64 64 64 64 65 64 64 63 62 62 63 63 62 62 61 62 63 64 64 65 66 67 67 67 67 66 66 66 66 65 65

ECMWFFLT2_sfc_temp_027.txt.gz
Temp
80 83 82 81 85 67 73 74 68 74 83 80 65 63 65 67 65 62 67 67 72 78 81 86 87 85 85 86 87 88 85 85 83 83 84 85 85 86 85 85 85 83 84 84 84 83 84 84 83 83 82 82 82 82 82 81 81 82 81 81 81 81 81
79 85 86 85 84 85 75 68 75 77 80 81 72 64 60 63 60 61 65 65 69 69 68 81 80 82 86 87 86 88 85 83 82 83 83 83 85 85 85 84 84 84 85 84 85 85 85 85 84 83 82 83 83 83 83 81 81 81 81 81 81 81 81
82 80 80 80 85 85 81 78 85 75 64 63 65 67 56 57 56 60 62 67 70 71 72 80 82 82 84 85 86 85 83 82 82 84 84 84 85 85 84 85 84 84 84 84 84 85 87 85 84 84 83 84 84 83 84 84 82 82 83 83 82 82 82
78 78 78 68 76 79 78 81 80 81 78 70 64 67 68 67 60 58 61 62 63 72 77 82 83 85 85 87 86 85 86 84 83 83 85 84 83 83 84 85 85 85 85 86 87 86 86 85 84 85 86 86 86 85 83 83 84 83 83 82 81 81 82
76 69 74 73 77 73 73 75 74 74 76 78 79 74 71 66 62 60 61 58 66 74 80 83 84 86 86 87 87 85 86 86 87 85 84 83 83 83 84 84 85 85 86 87 88 87 87 87 86 87 87 86 86 86 85 84 82 83 83 83 82 82 82
68 74 80 80 81 82 78 76 73 76 72 67 63 62 71 69 67 55 61 60 70 80 83 80 84 87 89 89 87 86 88 89 86 86 86 84 83 83 84 86 87 87 86 86 87 87 86 86 87 87 87 87 87 86 87 86 86 85 85 83 82 81 81
72 77 81 82 85 85 83 81 77 80 79 77 69 58 63 67 69 70 68 65 69 84 83 82 84 86 89 90 87 85 86 87 88 86 88 85 84 84 86 87 88 87 86 85 85 84 83 84 84 85 85 86 86 86 86 86 85 85 87 85 84 82 81
77 79 78 77 77 81 79 80 82 80 75 77 74 72 70 68 67 65 65 61 71 82 72 78 83 82 84 81 81 82 86 87 85 84 84 83 82 82 85 87 87 86 85 84 83 82 82 82 83 84 84 84 85 86 87 87 86 86 86 86 85 82 82
65 70 74 75 76 77 76 75 79 81 81 80 79 75 66 67 68 71 66 58 68 81 72 72 74 78 81 83 85 81 81 83 84 83 82 82 81 81 83 83 84 84 84 82 81 81 81 81 83 83 83 83 85 85 86 87 87 87 86 86 84 82 83
50 51 53 58 64 69 75 75 76 76 79 77 71 66 65 60 65 68 67 67 75 82 75 78 79 78 78 81 83 84 81 79 81 81 81 80 80 79 81 81 82 82 81 81 81 81 81 82 83 82 82 83 84 84 85 87 87 86 86 86 84 82 83
61 64 68 73 76 72 69 72 74 74 77 79 77 72 67 64 62 64 66 72 74 76 81 78 81 79 80 84 85 82 81 81 80 79 80 80 80 79 81 80 81 80 80 79 80 80 82 83 83 83 83 83 84 83 84 86 86 86 85 84 82 82 82
70 74 72 74 75 73 74 74 74 77 76 76 74 69 67 69 65 60 66 66 72 76 81 81 80 82 80 80 81 83 82 80 81 80 78 79 80 80 80 80 79 79 79 79 79 80 81 82 82 83 84 84 83 83 83 85 86 86 85 83 81 81 80
73 76 76 76 73 77 77 77 77 75 76 74 72 70 74 69 68 65 68 63 68 77 83 85 84 83 82 83 84 85 84 81 79 78 78 80 80 80 79 78 79 79 78 78 79 80 81 82 82 82 83 83 83 83 84 84 86 85 84 82 81 81 79
72 73 75 76 72 73 75 76 77 78 77 75 76 75 76 73 70 74 74 67 71 80 84 86 87 86 87 86 84 81 80 83 79 79 78 81 81 81 80 79 79 79 79 79 79 80 80 81 81 82 82 81 82 83 83 84 83 84 83 81 81 80 80
69 73 75 74 73 72 71 75 77 78 78 77 77 78 77 75 74 75 74 69 68 80 84 86 85 79 80 79 80 83 81 81 80 79 80 80 81 82 81 79 79 79 79 80 79 79 79 80 80 81 81 82 82 84 83 83 82 83 83 81 80 80 80
65 72 72 73 73 72 71 72 74 74 73 71 73 71 74 70 68 70 71 68 70 80 81 82 80 80 79 79 79 80 80 81 80 79 80 80 80 81 81 80 79 78 79 79 79 79 80 80 80 81 80 81 82 82 83 82 83 84 82 81 80 79 80
63 70 71 71 71 68 63 66 72 75 74 75 77 77 75 76 77 71 68 71 79 82 82 80 79 80 80 80 81 81 80 78 80 79 80 81 81 81 79 78 78 79 81 81 79 80 81 81 80 81 82 82 80 81 81 82 82 82 81 81 79 79 79
63 66 67 68 63 54 58 74 79 77 75 75 73 74 74 75 77 77 80 81 81 80 78 79 80 79 79 80 81 82 80 79 77 80 81 82 82 81 81 81 80 80 81 81 81 82 80 81 82 83 82 82 82 82 82 82 81 80 80 80 79 78 79
62 64 64 60 53 58 73 73 73 78 81 80 77 78 79 79 77 75 72 75 74 77 80 80 81 82 79 77 77 81 82 80 79 78 79 79 80 81 80 79 81 79 79 79 79 79 80 81 82 82 82 83 82 82 82 80 80 79 79 79 79 78 78
64 61 62 50 56 66 70 71 72 72 76 78 77 72 70 72 76 74 75 78 79 76 75 77 76 77 78 79 76 75 76 80 82 82 81 82 83 81 81 79 78 78 80 79 80 80 82 81 83 83 82 83 82 80 81 80 79 79 78 78 78 78 78
57 60 59 60 65 65 68 68 70 72 70 71 71 66 72 72 71 72 73 75 75 74 74 75 76 78 81 80 78 79 78 76 79 83 84 84 82 81 80 82 80 80 82 82 83 81 80 81 81 82 83 83 81 80 80 81 78 78 77 77 77 77 77
62 58 57 59 59 55 64 69 71 73 72 72 71 70 70 69 72 72 71 71 73 74 75 75 76 78 78 76 78 78 79 78 79 81 83 84 84 83 82 80 81 80 80 80 80 81 80 80 81 82 82 81 80 78 78 77 77 77 77 77 77 77 77
62 59 54 55 52 60 66 67 69 72 72 72 71 69 68 72 73 72 71 71 73 74 74 74 76 77 75 76 77 77 75 79 82 81 80 82 82 80 80 81 79 78 78 79 79 79 80 79 79 80 80 79 78 77 77 78 79 78 77 77 77 76 77
59 57 55 54 60 61 65 67 69 70 72 69 69 61 65 71 71 72 71 71 73 74 75 75 76 77 75 74 76 77 76 79 80 79 77 77 78 78 79 80 79 78 77 78 79 80 80 78 78 79 80 79 78 77 78 78 77 77 77 77 78 77 78
57 54 58 60 63 67 66 66 67 69 70 69 62 57 71 69 70 71 71 73 74 74 74 78 75 72 77 76 76 77 79 78 77 78 79 79 80 80 81 78 77 78 79 80 79 79 77 76 78 79 79 78 76 76 76 76 76 77 78 78 77 76 77
54 58 56 58 63 64 65 69 67 70 66 59 63 67 63 68 69 72 74 74 74 75 75 74 72 72 76 76 78 78 78 78 77 79 79 79 79 80 79 77 78 78 78 76 76 76 75 76 77 78 78 76 75 75 75 75 77 78 77 77 76 76 75
55 54 56 53 47 63 70 65 67 70 62 65 63 66 70 71 71 72 73 74 73 74 70 73 73 74 76 76 75 75 75 75 75 76 77 76 77 78 78 78 79 80 77 74 73 73 75 75 75 76 77 75 74 74 74 75 76 76 77 76 76 76 75
51 51 50 52 63 67 69 64 55 63 64 68 69 70 68 72 73 73 72 72 73 74 73 73 74 74 73 74 75 75 75 75 75 75 75 75 75 75 77 78 79 79 75 74 73 73 74 74 74 75 76 75 74 74 74 75 75 75 76 75 76 75 74
58 55 59 62 62 65 69 66 65 67 71 71 72 72 71 71 71 73 73 72 75 76 76 75 75 74 76 75 75 73 73 75 75 74 74 75 76 76 76 77 77 78 78 74 74 72 72 72 73 74 75 76 74 74 74 74 74 75 74 75 74 74 74
60 61 63 63 62 62 64 68 69 69 70 72 71 71 69 68 70 70 70 72 73 75 76 76 75 76 77 77 78 78 77 75 73 73 74 75 76 76 75 74 74 75 75 74 74 72 71 72 72 73 74 75 74 74 74 74 75 75 74 74 73 73 74
56 49 59 61 59 59 61 63 66 69 70 69 70 68 67 68 71 71 71 71 71 72 72 72 71 72 75 75 74 74 74 74 74 74 72 72 72 72 71 71 73 75 75 75 73 73 71 70 72 73 73 74 74 73 73 75 75 75 74 74 73 73 73
56 54 58 62 64 62 60 59 61 61 65 69 69 69 69 70 70 71 71 72 71 74 72 71 70 70 72 72 72 73 72 72 73 72 71 71 70 69 69 70 71 72 73 74 72 72 72 71 71 73 73 73 73 74 76 77 78 75 73 73 73 73 73
55 59 59 61 62 62 61 61 61 63 64 66 68 69 71 72 71 70 70 71 71 71 71 72 71 70 70 72 73 74 72 72 71 71 71 72 71 72 72 71 72 72 72 72 71 71 71 71 71 71 72 73 73 73 75 76 75 73 72 72 73 73 73
54 54 53 60 54 55 59 60 61 62 63 63 65 67 67 69 69 70 69 69 71 72 72 71 71 69 68 70 71 72 71 70 70 71 71 71 71 71 71 72 72 71 71 71 71 71 71 71 71 71 71 72 73 76 75 75 74 72 72 72 73 73 73
56 60 62 59 59 57 59 63 64 64 64 64 63 63 64 65 67 68 68 67 67 68 69 72 70 68 68 69 71 71 71 69 69 70 71 71 72 72 72 73 72 72 71 70 70 71 71 71 71 71 71 72 73 75 74 74 73 72 72 71 72 75 74
59 62 61 61 59 55 57 61 63 63 66 65 64 62 64 66 66 66 66 65 64 64 67 69 70 70 69 70 71 69 69 70 69 70 71 72 72 73 73 73 72 72 72 71 71 70 71 71 72 72 73 73 72 75 75 74 73 72 72 72 72 73 74
56 60 62 61 60 60 61 62 63 64 66 68 67 67 67 66 66 68 67 66 67 68 68 67 68 70 70 70 70 69 68 69 69 69 69 70 71 72 74 74 72 71 72 72 71 71 71 71 72 72 72 72 74 76 75 75 75 73 72 72 74 73 71

ECMWFFLT2_sfc_temp_030.txt.gz
Temp
89 88 91 90 93 73 83 85 76 81 92 87 77 77 82 81 74 69 82 76 81 91 92 93 94 94 95 97 98 100 97 97 94 93 95 96 96 96 95 94 94 92 93 92 92 92 93 92 92 91 89 89 88 88 88 87 87 88 87 87 87 88 87
90 93 93 92 93 93 87 77 83 92 96 91 80 70 72 69 66 69 79 73 75 77 72 91 92 92 94 96 97 100 99 97 94 94 94 94 95 96 95 94 93 94 93 93 94 95 94 93 93 91 89 90 89 89 89 87 87 86 87 87 88 88 87
88 92 92 88 92 95 87 86 97 82 70 69 78 75 63 64 63 67 74 79 78 79 77 87 87 89 91 93 96 98 99 98 95 95 95 95 96 96 95 95 93 93 94 93 92 95 96 94 92 91 91 91 91 90 90 90 88 88 88 90 89 88 88
87 88 86 73 81 90 92 94 88 92 85 77 72 73 75 73 65 66 68 76 71 81 85 89 89 90 92 95 96 97 99 99 96 96 96 95 94 94 95 95 95 94 95 96 96 96 96 94 93 93 94 94 94 92 90 90 90 89 89 88 88 87 88
87 75 82 78 82 78 80 82 79 84 84 89 85 84 76 70 68 68 67 66 74 83 92 92 91 92 93 95 94 95 98 100 102 99 97 95 94 94 94 95 95 95 96 97 97 97 97 96 95 96 96 95 95 95 92 92 89 90 90 89 89 88 88
77 80 87 87 87 87 85 80 78 82 78 74 69 67 84 79 73 63 68 66 76 90 95 93 93 95 96 97 96 97 99 101 101 101 99 96 94 94 95 97 98 98 96 96 98 97 96 96 96 96 96 96 96 95 95 94 94 93 93 90 88 88 88
78 83 89 92 92 92 90 87 82 86 85 81 75 62 70 78 79 82 78 71 73 92 96 94 94 95 98 99 99 98 100 100 103 99 101 97 95 95 97 97 99 99 96 96 95 93 93 93 93 94 94 96 95 95 95 94 93 93 95 93 91 88 88
85 88 91 91 91 90 86 88 89 86 81 83 80 77 78 75 77 72 74 67 76 92 95 95 96 95 99 99 100 98 100 102 102 100 98 95 93 93 96 97 99 97 96 94 92 91 90 90 91 92 93 93 94 95 96 96 95 94 94 94 93 89 88
71 77 82 84 89 87 83 83 86 88 88 87 86 85 84 72 76 77 72 64 74 87 93 92 94 97 98 99 101 100 98 99 101 98 95 94 92 91 93 93 94 95 94 91 89 89 88 89 91 90 91 92 94 93 95 97 96 96 94 94 93 90 89
56 56 60 64 69 76 82 85 85 86 85 83 80 73 74 67 73 75 72 72 80 90 91 91 92 93 94 98 100 103 101 99 98 95 93 90 89 88 90 91 92 92 90 89 88 88 88 89 90 89 89 91 93 93 94 97 97 95 94 95 94 91 91
68 70 73 81 82 81 75 79 81 83 86 87 84 80 74 70 71 71 73 76 79 84 88 88 91 92 93 95 97 97 98 98 97 92 91 90 89 88 90 89 90 90 88 87 87 87 88 90 90 90 90 91 92 91 92 95 95 95 93 92 91 90 91
76 81 79 84 83 79 80 79 80 84 84 84 81 77 72 77 75 66 74 77 78 81 88 89 89 92 92 94 95 98 98 97 97 95 89 88 90 89 89 89 88 87 87 87 86 87 88 89 89 90 91 91 90 90 90 93 95 95 94 91 89 89 89
79 82 83 85 83 82 82 82 82 80 82 81 78 76 81 79 73 69 76 78 76 81 88 92 92 92 93 96 97 99 100 102 98 92 91 91 91 90 89 87 87 87 87 86 86 87 88 89 88 89 90 90 90 90 91 91 95 93 92 89 88 88 87
78 80 81 83 82 82 82 82 82 83 83 82 81 81 83 82 76 79 80 78 80 86 88 91 94 96 97 98 98 99 99 100 95 95 91 94 93 92 90 88 88 87 87 87 86 87 87 88 88 89 89 88 89 89 90 92 90 91 90 88 87 87 86
74 79 82 83 82 81 80 82 83 84 84 83 84 83 83 82 80 82 82 78 77 88 91 92 95 96 97 97 98 99 97 98 99 95 95 93 93 93 91 89 89 88 88 87 87 86 86 87 87 88 88 88 89 91 90 89 89 90 91 87 87 87 86
70 77 79 80 81 81 80 79 81 81 81 79 82 80 84 80 76 78 79 75 77 86 91 93 93 93 93 93 94 95 96 99 97 93 94 93 92 93 92 91 89 88 88 87 86 87 88 88 88 88 87 88 88 89 90 89 90 91 90 88 87 86 87
67 76 79 79 79 77 72 74 79 82 82 83 85 86 86 85 85 78 74 76 85 87 91 90 91 93 93 93 94 94 95 94 96 94 93 94 93 92 91 90 88 89 90 89 87 88 89 89 88 89 89 89 87 88 88 89 89 89 89 89 87 86 87
66 74 76 76 70 61 64 82 87 85 82 82 80 81 84 87 87 84 87 87 88 90 90 89 89 91 92 92 93 96 95 94 91 93 93 93 94 94 93 92 90 89 89 90 89 90 89 89 90 92 90 89 89 89 89 89 88 87 87 88 87 86 86
64 73 72 64 57 61 78 85 88 89 89 87 84 85 87 88 89 89 87 88 88 90 91 91 92 92 94 96 95 96 97 93 93 91 92 90 91 91 91 90 91 88 88 88 88 88 89 90 90 91 90 90 89 88 88 87 87 87 87 87 86 86 85
69 64 66 54 58 75 80 82 83 85 85 87 85 82 86 88 89 88 86 87 89 90 92 94 95 94 93 91 89 88 92 93 93 93 93 92 92 91 91 88 88 87 89 88 89 88 89 89 91 91 90 91 89 87 88 88 87 87 86 86 85 85 85
57 58 57 62 72 71 75 76 73 76 72 74 75 71 80 88 90 89 87 88 90 91 92 94 94 90 91 88 89 93 93 91 93 96 96 96 93 93 92 93 90 88 89 89 90 88 88 90 90 91 92 91 88 88 87 89 87 86 85 85 85 84 84
66 61 54 61 63 58 65 68 77 80 80 79 78 73 72 85 91 92 89 87 88 89 92 93 90 86 84 82 87 93 95 93 90 94 96 98 96 95 94 91 89 88 89 90 89 90 89 90 91 91 92 89 87 86 86 86 86 85 85 85 85 84 84
65 60 54 52 57 62 69 71 76 80 81 81 78 72 68 82 89 91 91 90 89 89 90 90 85 84 79 82 87 95 93 94 94 93 94 96 95 92 91 91 89 90 88 89 89 89 88 88 90 90 89 87 86 85 86 88 87 86 85 85 85 85 84
64 60 56 53 65 61 66 75 77 80 83 78 74 61 66 76 77 86 91 90 90 89 90 89 84 82 80 84 91 94 92 94 94 91 90 91 91 91 91 92 90 87 87 86 87 87 87 86 88 88 88 87 85 86 88 88 86 86 85 85 86 86 86
62 58 58 63 66 70 73 75 78 80 81 77 63 57 71 73 78 79 79 83 88 89 87 86 83 84 89 90 90 91 93 92 89 90 90 89 90 90 92 89 84 86 87 88 88 88 86 86 89 89 88 87 84 85 85 85 85 86 86 86 85 85 85
63 63 59 61 67 71 74 78 80 80 74 61 61 71 72 76 78 81 81 81 83 85 85 86 87 89 89 89 91 90 90 89 88 89 90 91 92 92 88 85 87 89 90 87 87 87 86 88 88 88 86 84 84 84 84 84 85 87 86 85 84 84 83
68 65 60 57 49 66 76 76 76 76 66 68 70 72 77 80 79 80 81 81 82 84 83 87 87 87 89 89 88 88 87 87 87 87 88 86 86 86 86 86 88 88 86 86 86 85 87 87 87 86 85 83 83 83 83 83 85 85 84 84 83 83 82
60 59 55 56 69 71 76 76 68 70 70 73 74 74 75 79 79 80 80 80 82 83 83 83 84 84 83 84 84 85 86 86 86 87 87 87 87 89 91 90 87 87 83 82 82 83 84 84 85 85 84 82 82 83 81 83 83 83 83 83 83 82 82
67 65 70 71 72 73 76 76 73 74 76 78 77 77 76 76 77 80 80 79 82 83 82 82 82 82 83 84 86 85 85 86 86 85 86 87 87 87 86 87 86 85 83 81 81 81 82 81 82 84 85 83 82 81 80 82 82 82 81 81 81 81 81
71 72 73 72 73 72 74 78 79 78 78 80 79 77 76 77 78 79 78 80 83 84 84 83 82 83 83 83 84 83 83 82 82 82 83 84 85 85 84 84 84 84 83 82 81 79 79 81 81 82 84 84 81 80 81 81 82 81 80 80 80 80 79
65 58 69 70 68 69 72 75 78 80 80 79 79 75 76 77 80 80 80 80 81 82 82 81 80 81 83 81 81 81 80 81 80 80 78 78 79 80 80 82 83 84 83 83 82 80 78 81 83 84 83 83 81 81 80 82 82 80 80 80 79 79 78
66 63 67 68 69 68 69 71 70 70 74 77 78 78 78 78 79 81 80 81 81 82 81 81 81 81 82 80 79 80 80 79 79 79 79 79 79 80 80 80 79 80 80 79 78 77 76 78 80 81 82 82 81 82 84 86 84 81 80 80 80 79 79
66 67 68 68 69 67 66 68 68 66 68 73 75 76 77 80 79 78 79 80 80 81 80 80 79 78 79 81 80 81 80 79 79 79 79 79 79 80 79 79 80 80 79 78 76 76 77 79 80 80 80 81 81 81 83 83 82 80 79 78 79 79 79
64 64 65 68 64 60 63 65 66 65 65 69 71 73 74 74 75 77 77 77 79 80 80 79 79 77 77 79 79 80 79 78 78 79 79 79 80 80 81 81 80 80 80 80 79 78 78 79 80 79 79 80 82 84 83 82 81 79 79 79 79 79 79
62 65 69 66 64 63 64 64 64 65 65 66 66 66 71 73 74 75 74 74 74 75 77 80 79 77 76 78 80 80 80 78 78 79 80 80 80 81 81 81 80 79 79 79 79 78 78 79 79 79 79 81 81 83 81 81 81 79 79 78 80 81 79
67 69 70 70 68 63 64 65 63 62 62 63 63 64 67 69 70 71 70 70 70 71 74 76 78 78 77 78 79 77 78 79 78 79 80 81 82 82 82 81 79 79 79 79 79 78 79 80 79 80 81 80 79 83 81 81 81 79 79 78 78 80 80
61 68 71 70 68 67 69 68 66 64 64 64 63 64 64 62 64 67 67 67 69 70 71 73 75 76 76 77 77 76 76 77 77 78 77 77 79 80 82 81 79 78 79 79 79 80 80 79 79 80 80 79 80 83 81 81 80 79 77 78 79 80 78

ECMWFFLT2_sfc_temp_033.txt.gz
Temp
92 91 94 93 97 76 86 87 79 84 95 89 79 80 85 83 76 71 83 82 86 94 95 98 97 97 98 100 100 101 99 103 102 101 101 99 97 99 99 99 98 96 97 96 96 95 96 96 95 94 92 92 92 92 91 90 90 90 90 89 90 90 90
93 97 95 95 97 97 91 80 86 96 99 94 82 72 74 73 69 71 82 77 80 81 75 94 94 93 94 95 96 101 101 103 102 100 99 100 100 100 99 99 97 98 97 96 97 98 98 96 96 94 92 93 93 93 92 90 90 89 90 90 90 90 90
92 97 94 90 95 98 90 89 100 85 75 72 81 77 66 67 65 70 76 81 83 82 79 89 88 90 90 92 95 98 101 101 101 100 99 100 100 98 99 100 98 97 97 97 96 98 99 97 94 94 94 95 94 94 93 93 91 91 91 92 91 91 91
93 92 89 75 83 93 96 98 93 97 88 80 74 77 77 74 68 69 71 79 76 86 87 90 89 91 92 93 94 97 100 101 102 100 100 99 98 97 100 100 100 99 99 99 100 99 99 97 96 97 97 97 97 96 93 93 93 92 92 91 91 90 91
90 78 85 81 84 81 84 85 84 89 87 93 90 87 79 73 70 70 69 68 76 86 96 94 92 94 95 96 95 97 99 100 103 104 102 99 98 98 100 100 100 99 100 101 101 100 100 100 98 99 99 98 98 98 96 95 92 93 93 92 92 90 91
79 82 91 90 90 90 87 85 82 86 84 79 72 69 87 84 75 65 70 67 79 92 101 98 98 97 99 99 98 98 100 102 102 103 104 102 101 99 100 102 103 102 100 100 101 100 100 101 100 100 99 99 99 98 98 97 97 96 96 93 91 90 91
82 87 93 95 95 95 93 91 86 90 89 86 78 66 75 82 81 84 79 74 77 95 98 99 98 98 100 101 102 101 103 103 105 104 108 104 101 100 102 102 104 103 100 100 100 98 98 98 97 98 99 99 99 99 98 97 97 96 98 96 94 91 91
90 92 95 95 95 93 90 91 92 90 84 87 84 81 81 77 79 75 75 69 78 95 97 98 100 98 102 101 102 99 101 102 103 103 105 100 98 98 102 102 104 102 101 99 97 96 95 95 95 96 97 98 99 99 100 100 98 97 98 97 96 92 91
75 82 86 87 93 91 86 86 90 90 90 90 90 89 87 76 79 80 73 66 78 90 97 97 98 100 101 102 103 102 100 102 104 104 104 102 99 97 99 99 100 100 101 97 94 94 93 94 97 95 96 97 99 98 100 100 99 99 98 98 96 93 93
59 60 63 67 74 80 85 88 89 90 90 88 84 76 77 69 75 76 74 75 83 92 94 95 97 98 95 98 101 104 103 101 103 102 103 97 97 95 96 97 98 98 96 95 94 94 92 95 96 94 94 97 98 97 98 101 100 98 98 99 97 94 94
71 73 76 86 86 85 79 83 85 88 90 91 87 82 76 72 75 74 76 79 81 85 92 91 95 95 95 96 98 99 100 102 101 100 97 97 95 94 96 95 96 95 94 93 93 93 94 96 95 95 96 96 97 95 96 100 100 99 97 96 94 93 94
79 84 82 88 87 83 85 83 84 87 87 88 84 79 75 80 77 68 78 80 80 82 88 91 93 96 95 95 96 98 99 100 103 101 94 93 95 95 94 94 94 93 93 93 92 92 93 94 94 95 96 96 96 95 96 98 101 100 99 95 93 92 92
82 84 85 88 86 86 87 87 85 84 86 86 82 80 85 82 76 72 79 81 79 84 90 93 94 95 95 98 97 99 102 102 101 99 98 97 97 95 94 92 92 92 93 91 91 92 92 93 93 93 94 94 94 95 96 96 100 99 96 93 93 93 91
82 83 84 86 85 84 84 84 86 87 86 85 85 86 87 86 79 83 84 82 83 89 91 95 96 97 100 101 100 100 100 102 99 100 99 98 98 96 95 93 93 92 92 91 90 90 90 92 91 93 92 92 94 94 95 97 96 96 95 93 92 91 91
77 82 84 84 84 83 82 84 85 88 89 87 87 86 87 86 85 87 86 81 81 91 94 95 97 97 99 99 100 100 98 100 102 100 102 101 101 102 98 93 93 93 92 91 90 90 90 90 91 91 91 92 93 96 94 94 94 95 96 92 91 91 90
72 80 81 82 83 83 81 82 84 84 85 82 86 83 87 83 79 82 83 79 81 89 94 96 96 95 95 94 96 98 98 102 99 99 100 100 100 101 100 97 94 93 92 91 90 90 91 92 91 91 91 92 92 93 93 94 95 96 94 92 91 90 91
67 77 80 80 81 79 73 75 81 84 87 88 90 91 90 88 88 81 76 78 87 90 93 92 93 95 94 94 96 96 97 96 100 99 99 100 101 101 99 96 93 94 95 94 91 92 92 92 92 93 93 93 91 92 92 92 93 94 93 93 90 90 90
68 76 79 81 72 61 63 81 89 87 84 85 84 85 88 91 90 87 89 88 90 92 92 91 90 92 92 94 95 98 96 95 96 100 100 102 102 103 104 100 98 95 95 95 94 94 92 93 94 95 94 92 92 93 93 92 92 91 91 91 90 89 89
67 74 75 67 58 63 80 89 91 91 90 89 86 88 92 92 93 92 91 92 91 92 93 93 93 94 96 98 97 100 102 99 98 98 100 99 99 100 100 98 99 96 94 94 93 92 93 94 94 95 93 94 92 92 92 91 91 90 91 90 89 89 88
72 68 66 54 59 77 85 88 90 92 90 87 84 80 87 92 93 91 90 91 93 93 93 95 96 95 97 99 97 98 102 102 100 101 101 102 103 102 101 97 96 94 95 94 94 92 94 94 95 95 94 95 92 91 92 91 91 90 90 89 88 88 88
63 65 65 66 74 75 79 80 78 81 77 79 76 70 77 84 86 89 90 91 93 95 96 97 97 98 99 94 94 102 103 100 104 106 104 104 103 105 101 102 99 95 95 95 95 93 93 94 94 95 95 94 92 91 91 92 90 90 89 88 88 88 88
70 66 64 65 65 60 67 71 80 85 86 85 84 76 74 86 90 91 89 89 91 92 95 95 96 96 89 86 90 99 104 104 103 104 105 106 106 106 104 100 98 94 95 95 94 95 93 93 95 95 95 92 90 89 89 89 89 89 89 88 89 88 88
68 65 61 62 59 64 70 73 79 83 86 85 84 76 70 83 84 85 84 82 84 87 93 93 93 89 83 83 89 97 101 103 105 104 104 105 106 104 102 99 97 95 93 94 94 93 92 93 94 94 93 91 89 88 89 91 91 90 89 89 89 88 88
66 65 62 60 66 66 71 78 82 85 86 84 77 63 67 74 81 83 84 83 85 85 85 88 91 87 81 86 91 101 102 103 105 103 100 100 102 102 100 100 97 93 92 92 91 92 92 92 93 93 93 91 88 89 91 92 90 89 89 89 90 89 89
65 61 65 68 69 77 80 80 81 84 84 78 64 56 71 77 81 83 83 84 86 86 84 88 85 90 93 95 98 102 103 105 105 103 101 100 102 100 100 97 91 92 92 91 91 92 92 92 94 94 92 90 88 89 89 89 88 89 90 90 89 88 88
65 67 63 64 70 78 83 84 84 85 77 61 57 73 76 80 81 83 84 85 85 86 86 86 88 90 96 102 101 100 101 100 99 99 99 100 100 99 96 90 90 91 93 91 92 94 92 93 94 93 90 87 87 88 88 88 89 91 90 89 88 88 87
71 68 64 61 53 74 83 80 82 83 68 70 77 78 81 84 82 82 84 84 85 85 84 88 88 91 94 98 99 99 98 97 93 94 95 94 94 95 92 90 92 92 91 91 92 90 92 93 91 90 89 87 87 87 87 87 89 89 88 88 87 87 86
64 64 60 60 74 76 84 82 72 75 77 78 79 79 79 83 83 83 81 83 84 84 83 85 89 91 91 93 91 92 93 93 93 93 92 93 93 90 93 93 92 94 90 89 88 90 91 90 90 89 87 85 86 85 85 87 87 87 87 86 85 85 85
71 67 72 71 78 80 85 83 79 79 80 81 81 81 81 80 82 82 82 81 82 84 84 83 85 86 92 91 92 91 91 93 92 91 90 91 90 91 91 92 91 90 89 87 87 87 88 87 88 88 88 86 84 83 84 86 85 85 85 84 84 84 84
75 76 76 77 78 78 81 85 85 84 84 85 84 82 80 81 83 83 81 82 83 82 83 83 85 87 86 87 88 87 86 89 89 89 89 90 90 90 89 87 86 86 86 85 85 84 85 87 87 87 87 86 82 82 85 84 85 84 83 82 82 83 84
68 58 72 72 75 78 80 81 83 85 85 83 83 80 81 82 83 83 83 82 82 83 83 83 82 82 84 81 82 84 84 85 86 87 86 87 87 86 84 85 85 85 86 85 85 84 84 86 88 88 86 86 84 84 84 86 85 83 83 82 82 82 82
67 65 71 73 77 77 79 79 78 79 80 81 82 82 82 81 82 84 81 79 77 83 83 83 81 81 78 77 80 79 78 78 80 79 80 81 85 86 87 86 86 86 85 84 83 83 83 85 86 86 85 85 84 86 88 89 86 83 81 82 82 82 82
63 68 70 74 74 75 73 74 75 77 78 78 78 79 78 80 80 80 81 82 76 73 78 76 80 80 82 82 81 81 79 80 79 79 80 81 82 83 82 82 82 82 82 81 81 81 81 83 83 83 83 85 86 87 87 85 82 81 79 79 81 82 82
53 55 59 70 65 62 69 71 72 74 75 74 74 75 75 76 74 74 76 78 79 81 82 81 81 79 79 81 82 81 80 81 82 82 83 83 83 83 84 84 83 82 82 82 81 80 81 82 82 82 82 82 84 87 85 84 83 81 80 81 83 84 84
52 57 61 64 65 67 69 70 71 72 73 72 70 69 69 71 73 73 70 71 76 76 77 80 80 78 78 79 81 82 82 81 82 83 84 84 84 84 84 83 82 82 82 81 81 81 81 82 82 83 83 85 85 87 86 85 85 83 82 81 83 86 84
62 66 65 66 69 67 68 71 71 70 71 71 68 66 66 67 68 70 72 71 68 71 75 75 77 78 79 79 80 78 80 82 81 81 83 85 85 84 85 83 82 81 81 81 81 80 82 83 84 84 86 86 85 87 85 86 85 83 83 82 83 86 86
62 71 68 69 69 71 74 73 72 71 70 69 66 64 64 63 64 67 67 70 73 73 71 71 72 74 75 78 79 77 78 79 80 81 80 79 82 82 84 83 82 81 81 82 82 83 83 83 84 84 84 84 85 87 84 85 84 83 82 83 85 86 84

ECMWFFLT2_sfc_temp_036.txt.gz
Temp
93 92 94 92 94 73 85 87 78 83 94 87 77 78 83 81 74 69 82 80 86 94 96 99 96 96 96 97 98 99 97 98 95 94 95 96 96 95 95 94 93 91 92 92 92 93 94 93 92 91 89 89 89 88 88 86 86 87 86 86 86 87 86
93 98 96 94 94 93 89 80 85 94 97 92 79 69 72 71 66 69 80 76 78 79 73 92 93 92 94 95 96 99 97 97 96 94 94 94 95 95 95 94 93 93 93 93 95 96 96 94 93 91 89 90 90 89 89 87 87 86 87 87 87 87 86
93 97 95 89 94 96 87 86 98 82 73 71 78 75 64 63 62 66 75 79 78 80 79 88 88 89 91 93 94 95 96 97 96 95 94 94 96 96 94 96 94 94 94 95 94 96 98 95 91 91 91 92 91 91 90 90 88 88 88 89 88 88 88
93 92 89 74 82 91 94 95 90 96 87 79 72 75 76 72 65 66 68 75 72 84 86 91 89 90 90 93 93 94 97 97 97 94 94 93 93 94 95 97 96 95 96 98 99 97 97 95 93 93 94 94 94 93 90 90 90 89 88 88 87 87 88
92 79 84 79 83 79 81 83 81 86 86 90 86 84 77 71 66 67 67 66 73 84 95 95 93 93 92 93 92 92 96 98 100 99 94 94 95 95 95 96 97 97 97 99 99 98 98 98 95 95 95 94 94 94 93 92 89 89 89 89 89 88 88
80 83 91 89 88 88 84 82 79 83 81 76 70 67 85 80 72 62 66 65 77 90 99 94 94 95 96 95 94 93 96 98 97 98 99 96 96 95 97 99 101 100 98 99 100 98 97 97 97 96 95 95 95 94 94 93 93 91 91 89 88 88 88
83 88 94 95 94 93 90 88 83 87 86 84 76 62 72 80 79 81 77 71 73 91 94 94 96 98 100 98 97 95 96 97 100 100 102 97 95 96 99 99 101 100 97 97 97 95 94 95 94 95 95 95 94 94 94 93 92 91 93 91 90 88 88
88 93 96 95 94 92 88 89 90 87 82 84 81 80 80 75 77 72 74 67 75 92 93 95 99 96 100 98 99 96 98 99 99 99 100 94 93 94 98 99 100 96 96 94 93 92 92 92 92 93 93 94 94 94 95 95 93 92 93 93 92 89 88
73 79 86 87 92 90 84 84 87 89 89 88 88 87 85 74 77 79 72 64 74 88 93 93 95 98 98 100 101 100 97 98 100 99 96 94 92 92 95 95 95 95 96 93 91 91 90 90 93 92 92 93 94 93 95 95 94 94 93 93 92 90 90
58 58 63 67 73 79 85 86 87 88 87 85 81 75 76 67 74 75 72 72 81 91 90 92 94 95 93 97 99 101 100 98 100 98 93 91 92 91 93 93 94 94 91 91 91 90 90 92 93 91 91 93 94 94 94 96 95 94 94 95 93 91 91
69 71 75 86 86 84 78 82 83 85 88 89 86 81 75 71 74 73 75 77 80 83 89 89 93 94 94 95 95 95 95 98 98 94 92 93 91 91 94 92 93 91 90 91 91 91 92 94 93 93 93 93 94 92 93 96 96 95 93 93 91 90 91
77 84 81 86 87 82 84 82 82 85 85 86 83 78 74 78 75 67 76 79 79 82 88 89 90 93 92 94 94 96 96 96 97 95 90 90 93 94 93 93 92 91 91 90 90 91 92 93 93 94 94 95 93 92 93 95 97 97 96 92 89 89 89
82 84 85 87 87 86 85 85 85 83 85 84 81 80 84 80 74 70 77 79 78 83 89 91 91 91 91 96 96 98 98 99 97 93 92 94 94 94 94 91 90 91 91 90 90 91 91 93 93 93 94 93 93 93 94 93 98 96 93 90 89 90 89
81 82 83 85 85 85 85 85 85 86 86 84 84 84 86 84 77 82 82 79 82 88 90 93 94 95 97 97 96 96 96 98 93 94 92 95 95 94 93 91 92 91 91 91 90 90 90 91 91 93 92 91 93 93 93 95 93 93 92 90 89 89 88
77 82 83 84 83 83 81 85 88 88 86 86 86 85 86 85 84 87 86 79 78 89 92 92 95 95 96 95 96 97 94 96 99 97 97 95 95 94 93 91 92 91 91 91 90 89 90 90 91 91 91 91 92 96 93 93 91 92 93 90 90 89 88
72 80 82 82 83 82 80 79 82 83 82 81 85 81 86 82 78 81 83 77 79 88 93 95 95 94 92 92 91 93 92 97 96 95 96 96 94 94 93 92 91 90 90 90 90 90 91 92 91 91 90 91 92 92 93 93 94 95 93 91 90 89 89
68 78 82 81 81 78 73 75 80 83 85 85 89 90 89 87 87 80 76 79 87 88 91 91 91 94 93 93 94 93 93 91 95 95 95 97 95 92 91 90 89 92 93 93 90 91 92 92 91 93 92 92 90 91 91 91 92 94 93 93 90 89 89
68 76 78 79 70 61 65 83 88 86 83 85 83 82 85 88 88 85 87 87 88 90 91 90 89 91 90 92 92 94 91 91 91 95 95 98 100 99 96 94 93 92 92 93 92 92 91 91 93 95 93 92 91 91 92 91 91 91 90 90 89 88 88
67 73 73 66 59 62 79 88 90 91 89 88 85 87 89 89 90 91 88 89 89 89 92 92 90 90 92 95 97 99 100 95 95 93 95 93 94 95 96 92 94 91 91 91 91 90 92 93 93 94 92 93 92 91 91 90 90 90 90 89 88 88 88
72 69 67 55 58 76 83 86 89 92 91 90 87 83 88 91 91 89 83 84 86 89 91 94 93 92 95 97 94 94 99 100 98 99 99 99 100 99 98 94 91 90 93 92 93 91 93 92 94 94 93 94 91 90 91 91 91 90 89 88 88 88 87
63 65 65 64 73 74 78 80 83 85 80 82 80 73 79 88 91 90 83 85 87 86 87 89 92 93 97 91 91 100 101 98 101 102 101 103 101 101 98 101 97 92 93 93 94 91 92 93 93 94 94 94 91 91 90 92 90 89 89 87 87 87 87
72 64 62 64 63 58 67 77 83 89 87 86 83 75 73 83 86 85 84 82 84 83 88 87 85 85 82 84 88 95 101 102 102 103 103 104 102 102 103 98 99 93 93 95 93 93 92 92 94 94 95 92 90 88 88 89 89 88 88 87 87 87 87
68 64 60 60 58 63 75 76 85 87 87 88 85 77 69 81 84 84 85 83 84 85 85 84 85 81 77 78 85 95 100 103 105 102 102 104 104 103 102 101 101 99 93 93 93 92 92 92 93 93 93 91 89 88 88 90 91 89 88 87 87 87 87
67 65 62 60 67 66 74 80 85 86 89 86 81 63 66 76 82 83 84 83 85 84 83 84 83 80 77 81 85 95 102 103 101 98 97 97 100 101 100 102 97 93 92 91 91 92 91 90 93 93 93 90 87 88 89 90 89 88 87 88 88 88 88
64 59 61 66 68 74 78 82 84 87 88 82 66 57 70 78 81 83 83 84 84 84 82 83 80 83 85 86 90 97 97 97 99 101 100 96 98 99 102 101 89 92 91 91 91 92 91 90 93 93 92 89 87 86 87 87 87 88 89 88 88 87 87
62 64 60 63 68 77 82 84 87 86 78 63 63 74 78 81 82 84 85 84 84 84 82 82 83 85 89 91 93 93 96 97 93 95 97 96 97 102 100 91 89 92 93 91 92 94 91 92 93 93 89 86 86 86 86 86 87 90 89 88 87 87 86
67 65 60 58 50 73 87 85 82 85 70 72 76 79 82 84 82 83 83 83 83 83 81 84 84 85 88 89 88 90 91 93 91 90 92 93 92 92 90 91 92 92 91 91 92 92 93 94 92 90 88 85 85 85 86 86 88 88 88 87 86 86 85
62 60 57 57 71 78 87 84 70 79 79 79 80 81 80 83 83 81 81 82 82 83 82 82 83 84 84 85 87 86 88 92 91 92 93 93 93 93 95 94 92 94 90 89 90 90 92 91 90 89 87 85 85 85 85 87 87 87 86 86 86 85 84
68 65 70 78 81 83 88 85 78 80 81 83 82 82 81 80 80 82 79 77 79 80 81 82 82 83 84 84 83 79 77 79 84 87 91 91 93 92 91 92 91 90 89 88 89 88 89 88 88 88 87 85 84 84 85 86 85 85 85 85 84 83 83
71 73 73 78 81 83 83 84 86 84 83 84 85 83 81 80 82 80 76 78 78 78 77 75 76 75 74 75 72 72 72 72 71 71 75 80 88 91 90 88 88 89 88 88 87 86 86 87 86 86 86 86 82 82 85 84 85 85 84 83 82 82 82
64 53 69 69 69 75 82 81 84 86 84 81 82 79 79 80 81 79 78 78 78 77 75 73 71 71 73 72 71 70 71 70 69 70 71 71 69 70 76 82 85 86 87 86 85 85 84 85 85 84 85 85 84 84 84 85 85 84 83 82 81 81 81
59 58 62 63 66 65 72 75 73 75 79 81 80 79 79 78 79 78 77 77 76 77 75 73 71 71 72 70 69 69 68 68 68 68 67 67 70 70 69 68 70 73 75 78 78 80 79 80 82 82 84 84 85 85 87 87 86 83 81 81 81 81 82
62 63 62 61 63 63 67 73 76 78 76 75 74 75 75 76 75 74 75 76 73 73 73 75 73 70 70 70 68 68 68 68 67 66 66 68 68 68 68 68 70 71 70 70 70 73 76 79 82 82 83 85 86 85 84 84 83 81 80 80 80 80 80
60 57 57 59 55 54 60 68 71 72 74 74 73 73 73 73 72 73 73 73 75 74 74 73 73 70 68 68 68 67 68 68 68 69 68 68 69 69 70 70 72 72 71 73 74 75 79 81 82 83 83 84 84 85 84 84 83 80 79 79 80 81 81
56 60 61 63 63 61 62 68 70 71 72 72 70 70 71 72 73 73 72 72 72 72 73 73 70 68 68 68 68 67 67 67 67 67 66 67 68 67 68 70 72 73 75 77 78 78 79 81 81 82 83 84 83 84 83 83 83 81 80 79 80 82 81
63 65 63 63 62 61 65 68 69 70 71 70 69 70 70 70 71 71 70 69 68 69 71 71 70 68 68 69 70 66 66 68 68 66 68 70 72 75 79 78 78 77 78 78 79 79 81 82 83 82 83 84 83 85 84 84 83 82 82 80 80 81 83
57 62 63 62 65 68 69 69 69 69 70 70 67 67 67 68 69 70 68 68 69 69 68 69 70 70 68 67 67 66 67 69 71 74 73 71 75 75 79 80 78 77 78 80 80 81 81 81 81 82 82 83 84 85 84 84 84 82 82 83 85 84 80